KAL78 CYUL-RKSI

Flight info

Callsign KAL78
Flight time 13h 38m
Altitude 34000
Route KESKA DCT BIPKO DCT IPSAK DCT OMEGI DCT RADEN DCT 49N080W 54N090W 59N100W 62N110W 64N120W 66N130W/N0492F360 DCT GOATS DCT BTT NCA30 OME R338 MUCLA/N0491F380 R338 MARCC DCT SYA DCT AAMYY DCT 51N170E DCT CUTEE DCT KALIG/N0489F400 DCT KALNA OTR5 ADNAP Y807 LALID Y804 INUBO Y16 SAPRA Y685 GUKDO GUKDO3C
Aircraft A359/H-SDE2E3GHIJ3J4J5LM1ORWXY/LB1D1

Departure

Time 2026-05-04 11:25
Airport Montreal / Pierre Elliott Trudeau International Airport (CYUL)

Arrival

Time 2026-05-05 01:03
Airport Incheon International Airport (RKSI)
Time Latitude Longitude Altitude Speed Heading
2026-05-04 11:12 45.45983 -73.75635 111 ft 0 kts 178°
2026-05-04 11:19 45.46062 -73.75601 110 ft 0 kts 266°
2026-05-04 11:19 45.46061 -73.75613 108 ft 5 kts 268°
2026-05-04 11:20 45.46067 -73.75694 107 ft 10 kts 292°
2026-05-04 11:20 45.46123 -73.75722 108 ft 11 kts 359°
2026-05-04 11:20 45.46230 -73.75728 109 ft 19 kts 357°
2026-05-04 11:20 45.46375 -73.75706 110 ft 24 kts 11°
2026-05-04 11:22 45.47720 -73.74002 116 ft 49 kts 42°
2026-05-04 11:22 45.47967 -73.73679 113 ft 47 kts 43°
2026-05-04 11:23 45.48131 -73.73462 115 ft 28 kts 43°
2026-05-04 11:23 45.48227 -73.73420 115 ft 11 kts 328°
2026-05-04 11:24 45.48094 -73.73903 116 ft 54 kts 222°
2026-05-04 11:25 45.47648 -73.74487 113 ft 119 kts 223°
2026-05-04 11:25 45.46895 -73.75473 145 ft 171 kts 221°
2026-05-04 11:25 45.46010 -73.76626 775 ft 172 kts 221°
2026-05-04 11:26 45.44666 -73.79494 2128 ft 187 kts 250°
2026-05-04 11:27 45.49734 -73.92992 5535 ft 245 kts 303°
2026-05-04 11:28 45.50800 -73.94896 6136 ft 247 kts 302°
2026-05-04 11:28 45.51851 -73.96839 6703 ft 248 kts 301°
2026-05-04 11:28 45.52892 -73.98803 7279 ft 249 kts 301°
2026-05-04 11:28 45.53934 -74.00791 7881 ft 249 kts 300°
2026-05-04 11:29 45.54969 -74.02775 8457 ft 250 kts 300°
2026-05-04 11:29 45.56012 -74.04775 9061 ft 252 kts 300°
2026-05-04 11:29 45.57059 -74.06780 9668 ft 252 kts 300°
2026-05-04 11:29 45.58110 -74.08789 10190 ft 255 kts 300°
2026-05-04 11:31 45.66854 -74.25584 11638 ft 343 kts 302°
2026-05-04 11:33 45.73302 -74.47477 14538 ft 353 kts 274°
2026-05-04 11:33 45.73504 -74.50991 14929 ft 355 kts 274°
2026-05-04 11:33 45.73698 -74.54527 15330 ft 357 kts 274°
2026-05-04 11:34 45.73905 -74.58082 15778 ft 359 kts 274°
2026-05-04 11:34 45.74126 -74.61654 16197 ft 361 kts 275°
2026-05-04 11:34 45.74359 -74.65242 16630 ft 363 kts 275°
2026-05-04 11:34 45.74601 -74.68853 17076 ft 365 kts 275°
2026-05-04 11:35 45.74847 -74.72478 17504 ft 367 kts 275°
2026-05-04 11:35 45.75095 -74.76126 17913 ft 369 kts 275°
2026-05-04 11:35 45.75344 -74.79793 18297 ft 371 kts 275°
2026-05-04 11:35 45.75597 -74.83482 18676 ft 373 kts 276°
2026-05-04 11:36 45.76012 -74.87159 19050 ft 375 kts 280°
2026-05-04 11:36 45.76517 -74.90827 19444 ft 376 kts 281°
2026-05-04 11:36 45.77062 -74.94505 19841 ft 378 kts 282°
2026-05-04 11:36 45.77629 -74.98192 20232 ft 380 kts 282°
2026-05-04 11:37 45.78204 -75.01889 20624 ft 381 kts 282°
2026-05-04 11:37 45.78783 -75.05604 21026 ft 383 kts 282°
2026-05-04 11:37 45.79362 -75.09340 21409 ft 385 kts 283°
2026-05-04 11:37 45.79943 -75.13100 21798 ft 387 kts 283°
2026-05-04 11:38 45.80521 -75.16880 22192 ft 389 kts 283°
2026-05-04 11:38 45.81097 -75.20680 22566 ft 392 kts 283°
2026-05-04 11:38 45.81676 -75.24512 22943 ft 394 kts 283°
2026-05-04 11:38 45.82256 -75.28359 23298 ft 396 kts 283°
2026-05-04 11:39 45.82840 -75.32238 23602 ft 399 kts 283°
2026-05-04 11:39 45.83426 -75.36133 23899 ft 401 kts 284°
2026-05-04 11:40 45.86967 -75.59891 25697 ft 413 kts 284°
2026-05-04 11:41 45.87563 -75.63926 25993 ft 414 kts 284°
2026-05-04 11:41 45.88159 -75.67980 26282 ft 416 kts 284°
2026-05-04 11:41 45.88759 -75.72054 26576 ft 418 kts 284°
2026-05-04 11:41 45.89359 -75.76144 26846 ft 420 kts 284°
2026-05-04 11:42 45.89958 -75.80251 27121 ft 422 kts 285°
2026-05-04 11:42 45.90559 -75.84380 27389 ft 423 kts 285°
2026-05-04 11:42 45.91162 -75.88525 27648 ft 425 kts 285°
2026-05-04 11:42 45.91787 -75.92684 27895 ft 426 kts 287°
2026-05-04 11:43 45.92653 -75.96747 28150 ft 426 kts 293°
2026-05-04 11:43 45.93869 -76.00625 28373 ft 425 kts 300°
2026-05-04 11:43 45.95439 -76.04208 28624 ft 426 kts 307°
2026-05-04 11:43 45.97375 -76.07451 28922 ft 426 kts 315°
2026-05-04 11:44 45.99553 -76.10318 29375 ft 423 kts 318°
2026-05-04 11:44 46.01784 -76.13062 29793 ft 421 kts 319°
2026-05-04 11:44 46.04037 -76.15757 30064 ft 421 kts 319°
2026-05-04 11:44 46.06299 -76.18438 30264 ft 422 kts 319°
2026-05-04 11:45 46.08568 -76.21129 30484 ft 422 kts 319°
2026-05-04 11:45 46.10830 -76.23827 30696 ft 423 kts 319°
2026-05-04 11:45 46.13061 -76.26503 30913 ft 423 kts 318°
2026-05-04 11:45 46.15324 -76.29231 31139 ft 424 kts 318°
2026-05-04 11:46 46.17584 -76.31963 31350 ft 424 kts 318°
2026-05-04 11:46 46.19844 -76.34701 31556 ft 425 kts 318°
2026-05-04 11:46 46.22111 -76.37450 31750 ft 425 kts 318°
2026-05-04 11:46 46.24373 -76.40197 31962 ft 425 kts 318°
2026-05-04 11:47 46.26637 -76.42951 32146 ft 426 kts 317°
2026-05-04 11:47 46.28901 -76.45706 32330 ft 426 kts 317°
2026-05-04 11:47 46.31170 -76.48470 32512 ft 427 kts 317°
2026-05-04 11:47 46.33442 -76.51240 32685 ft 427 kts 317°
2026-05-04 11:48 46.35714 -76.54012 32874 ft 427 kts 317°
2026-05-04 11:48 46.37982 -76.56782 33054 ft 427 kts 317°
2026-05-04 11:48 46.40257 -76.59564 33215 ft 428 kts 317°
2026-05-04 11:48 46.42529 -76.62345 33397 ft 428 kts 317°
2026-05-04 11:49 46.44803 -76.65133 33555 ft 428 kts 317°
2026-05-04 11:49 46.47082 -76.67930 33677 ft 430 kts 317°
2026-05-04 11:49 46.49369 -76.70740 33694 ft 433 kts 317°
2026-05-04 11:50 46.53988 -76.76429 33692 ft 436 kts 317°
2026-05-04 11:50 46.58613 -76.82132 33690 ft 435 kts 317°
2026-05-04 11:51 46.63226 -76.87833 33685 ft 435 kts 317°
2026-05-04 11:51 46.67836 -76.93545 33686 ft 435 kts 317°
2026-05-04 11:52 46.72437 -76.99263 33687 ft 435 kts 316°
2026-05-04 11:52 46.77040 -77.04996 33686 ft 435 kts 316°
2026-05-04 11:53 46.81641 -77.10739 33686 ft 435 kts 316°
2026-05-04 11:53 46.86239 -77.16493 33685 ft 435 kts 316°
2026-05-04 11:55 47.04631 -77.39640 33672 ft 437 kts 316°
2026-05-04 11:56 47.09205 -77.45430 33682 ft 437 kts 316°
2026-05-04 11:56 47.13841 -77.51312 33672 ft 438 kts 316°
2026-05-04 11:57 47.18447 -77.57172 33685 ft 438 kts 316°
2026-05-04 11:57 47.23011 -77.62991 33678 ft 438 kts 316°
2026-05-04 11:58 47.27626 -77.68888 33672 ft 439 kts 316°
2026-05-04 11:58 47.32236 -77.74793 33670 ft 439 kts 316°
2026-05-04 11:59 47.36848 -77.80716 33675 ft 439 kts 316°
2026-05-04 11:59 47.41455 -77.86645 33676 ft 440 kts 316°
2026-05-04 12:00 47.46063 -77.92591 33672 ft 440 kts 316°
2026-05-04 12:00 47.50668 -77.98547 33669 ft 440 kts 316°
2026-05-04 12:01 47.55269 -78.04514 33669 ft 440 kts 316°
2026-05-04 12:02 47.71330 -78.25454 33662 ft 441 kts 316°
2026-05-04 12:03 47.75927 -78.31480 33659 ft 441 kts 316°
2026-05-04 12:03 47.80527 -78.37525 33658 ft 441 kts 316°
2026-05-04 12:04 47.85120 -78.43577 33662 ft 442 kts 316°
2026-05-04 12:04 47.89722 -78.49654 33652 ft 442 kts 316°
2026-05-04 12:05 47.94316 -78.55735 33656 ft 442 kts 316°
2026-05-04 12:05 47.98908 -78.61831 33641 ft 442 kts 316°
2026-05-04 12:06 48.03500 -78.67939 33639 ft 442 kts 316°
2026-05-04 12:06 48.08090 -78.74062 33631 ft 442 kts 316°
2026-05-04 12:07 48.12643 -78.80151 33628 ft 442 kts 316°
2026-05-04 12:07 48.17254 -78.86331 33627 ft 442 kts 316°
2026-05-04 12:08 48.21831 -78.92482 33629 ft 442 kts 316°
2026-05-04 12:08 48.26402 -78.98641 33629 ft 442 kts 316°
2026-05-04 12:09 48.30939 -79.04768 33627 ft 441 kts 316°
2026-05-04 12:09 48.35501 -79.10946 33631 ft 442 kts 316°
2026-05-04 12:10 48.40062 -79.17138 33622 ft 442 kts 316°
2026-05-04 12:10 48.44625 -79.23347 33619 ft 442 kts 316°
2026-05-04 12:11 48.49179 -79.29559 33608 ft 442 kts 316°
2026-05-04 12:11 48.53734 -79.35789 33609 ft 442 kts 316°
2026-05-04 12:12 48.58279 -79.42020 33600 ft 442 kts 316°
2026-05-04 12:12 48.62822 -79.48265 33600 ft 441 kts 315°
2026-05-04 12:14 48.80194 -79.72294 33587 ft 441 kts 315°
2026-05-04 12:15 48.84713 -79.78584 33586 ft 441 kts 315°
2026-05-04 12:15 48.89233 -79.84892 33583 ft 441 kts 315°
2026-05-04 12:16 48.93747 -79.91206 33579 ft 441 kts 315°
2026-05-04 12:16 48.98261 -79.97538 33575 ft 441 kts 315°
2026-05-04 12:17 49.02699 -80.03993 33575 ft 441 kts 311°
2026-05-04 12:17 49.06804 -80.10932 33573 ft 440 kts 310°
2026-05-04 12:18 49.10860 -80.17942 33570 ft 440 kts 310°
2026-05-04 12:18 49.14932 -80.24849 33571 ft 441 kts 310°
2026-05-04 12:19 49.19062 -80.31777 33566 ft 441 kts 311°
2026-05-04 12:19 49.23201 -80.38716 33567 ft 442 kts 311°
2026-05-04 12:20 49.27338 -80.45676 33566 ft 442 kts 311°
2026-05-04 12:20 49.31477 -80.52662 33565 ft 443 kts 310°
2026-05-04 12:21 49.35611 -80.59662 33562 ft 443 kts 310°
2026-05-04 12:21 49.39747 -80.66686 33562 ft 444 kts 310°
2026-05-04 12:22 49.43889 -80.73738 33558 ft 445 kts 310°
2026-05-04 12:22 49.48031 -80.80808 33555 ft 445 kts 310°
2026-05-04 12:23 49.52173 -80.87899 33550 ft 446 kts 310°
2026-05-04 12:23 49.56318 -80.95014 33553 ft 446 kts 310°
2026-05-04 12:24 49.60460 -81.02141 33552 ft 447 kts 310°
2026-05-04 12:24 49.64601 -81.09289 33551 ft 447 kts 310°
2026-05-04 12:25 49.68733 -81.16440 33545 ft 447 kts 310°
2026-05-04 12:25 49.72869 -81.23618 33539 ft 447 kts 310°
2026-05-04 12:26 49.76995 -81.30800 33536 ft 447 kts 310°
2026-05-04 12:26 49.81090 -81.37944 33529 ft 446 kts 310°
2026-05-04 12:27 49.85204 -81.45143 33526 ft 446 kts 310°
2026-05-04 12:27 49.89335 -81.52391 33523 ft 445 kts 310°
2026-05-04 12:28 49.93401 -81.59546 33519 ft 444 kts 310°
2026-05-04 12:28 49.97479 -81.66743 33514 ft 443 kts 310°
2026-05-04 12:29 50.01542 -81.73934 33507 ft 443 kts 309°
2026-05-04 12:29 50.05596 -81.81129 33507 ft 442 kts 309°
2026-05-04 12:30 50.09645 -81.88334 33502 ft 442 kts 309°
2026-05-04 12:30 50.13685 -81.95542 33502 ft 441 kts 309°
2026-05-04 12:31 50.17715 -82.02754 33493 ft 441 kts 309°
2026-05-04 12:31 50.21739 -82.09975 33489 ft 441 kts 309°
2026-05-04 12:32 50.27289 -82.19966 33480 ft 440 kts 308°
2026-05-04 12:33 50.31294 -82.27200 33474 ft 440 kts 308°
2026-05-04 12:33 50.35294 -82.34447 33468 ft 440 kts 308°
2026-05-04 12:34 50.39288 -82.41703 33467 ft 440 kts 308°
2026-05-04 12:34 50.43278 -82.48971 33464 ft 440 kts 308°
2026-05-04 12:35 50.47262 -82.56250 33457 ft 440 kts 307°
2026-05-04 12:35 50.51244 -82.63545 33456 ft 440 kts 307°
2026-05-04 12:36 50.55220 -82.70850 33451 ft 440 kts 307°
2026-05-04 12:36 50.59166 -82.78120 33447 ft 440 kts 307°
2026-05-04 12:37 50.63132 -82.85449 33439 ft 440 kts 307°
2026-05-04 12:37 50.67102 -82.92806 33441 ft 440 kts 307°
2026-05-04 12:38 50.71067 -83.00175 33436 ft 441 kts 306°
2026-05-04 12:38 50.75030 -83.07561 33414 ft 441 kts 306°
2026-05-04 12:39 50.78994 -83.14968 33432 ft 441 kts 306°
2026-05-04 12:39 50.82952 -83.22389 33418 ft 442 kts 306°
2026-05-04 12:40 50.86908 -83.29825 33413 ft 442 kts 306°
2026-05-04 12:40 50.90863 -83.37280 33412 ft 442 kts 306°
2026-05-04 12:41 50.94817 -83.44756 33402 ft 443 kts 306°
2026-05-04 12:41 50.98771 -83.52254 33397 ft 443 kts 305°
2026-05-04 12:42 51.02725 -83.59775 33391 ft 444 kts 305°
2026-05-04 12:42 51.06680 -83.67318 33388 ft 445 kts 305°
2026-05-04 12:43 51.10637 -83.74888 33382 ft 445 kts 305°
2026-05-04 12:43 51.14596 -83.82485 33379 ft 446 kts 305°
2026-05-04 12:44 51.18558 -83.90108 33372 ft 447 kts 305°
2026-05-04 12:44 51.22495 -83.97708 33371 ft 448 kts 304°
2026-05-04 12:45 51.26493 -84.05448 33364 ft 449 kts 304°
2026-05-04 12:45 51.30438 -84.13108 33363 ft 450 kts 304°
2026-05-04 12:46 51.34418 -84.20861 33355 ft 451 kts 304°
2026-05-04 12:46 51.38405 -84.28649 33355 ft 453 kts 304°
2026-05-04 12:47 51.42398 -84.36473 33346 ft 454 kts 304°
2026-05-04 12:47 51.46399 -84.44337 33340 ft 456 kts 304°
2026-05-04 12:48 51.50405 -84.52233 33332 ft 457 kts 304°
2026-05-04 12:48 51.54420 -84.60173 33328 ft 458 kts 304°
2026-05-04 12:49 51.58442 -84.68151 33332 ft 460 kts 304°
2026-05-04 12:49 51.62463 -84.76153 33330 ft 461 kts 304°
2026-05-04 12:50 51.66499 -84.84210 33323 ft 463 kts 304°
2026-05-04 12:50 51.70539 -84.92301 33320 ft 464 kts 304°
2026-05-04 12:51 51.74587 -85.00433 33314 ft 465 kts 304°
2026-05-04 12:51 51.78640 -85.08601 33309 ft 467 kts 304°
2026-05-04 12:52 51.82701 -85.16808 33312 ft 468 kts 304°
2026-05-04 12:52 51.86768 -85.25054 33308 ft 469 kts 304°
2026-05-04 12:53 51.90838 -85.33336 33304 ft 471 kts 304°
2026-05-04 12:53 51.94884 -85.41600 33300 ft 472 kts 304°
2026-05-04 12:54 51.98963 -85.49955 33301 ft 473 kts 304°
2026-05-04 12:54 52.03051 -85.58355 33298 ft 474 kts 304°
2026-05-04 12:55 52.07139 -85.66782 33294 ft 476 kts 304°
2026-05-04 12:55 52.11234 -85.75252 33290 ft 477 kts 304°
2026-05-04 12:56 52.15330 -85.83752 33287 ft 478 kts 304°
2026-05-04 12:56 52.19430 -85.92286 33285 ft 479 kts 304°
2026-05-04 12:57 52.23531 -86.00853 33280 ft 480 kts 304°
2026-05-04 12:57 52.27634 -86.09454 33279 ft 480 kts 304°
2026-05-04 12:58 52.31737 -86.18083 33265 ft 481 kts 304°
2026-05-04 12:58 52.35836 -86.26734 33269 ft 482 kts 304°
2026-05-04 12:59 52.39939 -86.35424 33265 ft 483 kts 304°
2026-05-04 12:59 52.44040 -86.44138 33265 ft 484 kts 304°
2026-05-04 13:00 52.48143 -86.52886 33258 ft 484 kts 304°
2026-05-04 13:00 52.52249 -86.61670 33259 ft 485 kts 304°
2026-05-04 13:01 52.56350 -86.70474 33257 ft 486 kts 304°
2026-05-04 13:01 52.60449 -86.79305 33258 ft 486 kts 304°
2026-05-04 13:02 52.64545 -86.88162 33257 ft 486 kts 304°
2026-05-04 13:02 52.68617 -86.96997 33252 ft 487 kts 304°
2026-05-04 13:03 52.72708 -87.05902 33248 ft 488 kts 304°
2026-05-04 13:03 52.76801 -87.14845 33249 ft 489 kts 304°
2026-05-04 13:04 52.80204 -87.22303 33253 ft 489 kts 304°
2026-05-04 13:04 52.84296 -87.31299 33240 ft 490 kts 304°
2026-05-04 13:05 52.88386 -87.40325 33246 ft 491 kts 304°
2026-05-04 13:05 52.92481 -87.49393 33246 ft 492 kts 304°
2026-05-04 13:06 52.96576 -87.58495 33252 ft 493 kts 304°
2026-05-04 13:06 53.00671 -87.67630 33251 ft 494 kts 304°
2026-05-04 13:07 53.04764 -87.76792 33253 ft 494 kts 304°
2026-05-04 13:07 53.08858 -87.85990 33254 ft 495 kts 304°
2026-05-04 13:08 53.12945 -87.95206 33250 ft 495 kts 304°
2026-05-04 13:08 53.17025 -88.04442 33255 ft 495 kts 304°
2026-05-04 13:09 53.21093 -88.13682 33255 ft 495 kts 304°
2026-05-04 13:09 53.25174 -88.22981 33254 ft 495 kts 304°
2026-05-04 13:10 53.29235 -88.32277 33256 ft 495 kts 304°
2026-05-04 13:10 53.33286 -88.41583 33260 ft 495 kts 304°
2026-05-04 13:11 53.37331 -88.50910 33263 ft 495 kts 304°
2026-05-04 13:11 53.41335 -88.60176 33261 ft 494 kts 304°
2026-05-04 13:12 53.45366 -88.69523 33262 ft 494 kts 304°
2026-05-04 13:12 53.49382 -88.78878 33269 ft 494 kts 304°
2026-05-04 13:13 53.53388 -88.88257 33273 ft 494 kts 304°
2026-05-04 13:13 53.57392 -88.97676 33272 ft 495 kts 304°
2026-05-04 13:14 53.61401 -89.07120 33282 ft 496 kts 304°
2026-05-04 13:14 53.65413 -89.16600 33281 ft 497 kts 304°
2026-05-04 13:15 53.69417 -89.26109 33286 ft 498 kts 304°
2026-05-04 13:15 53.73424 -89.35662 33285 ft 499 kts 304°
2026-05-04 13:16 53.77427 -89.45244 33288 ft 499 kts 304°
2026-05-04 13:16 53.81428 -89.54857 33286 ft 500 kts 304°
2026-05-04 13:17 53.85427 -89.64502 33290 ft 501 kts 304°
2026-05-04 13:17 53.89430 -89.74191 33284 ft 502 kts 304°
2026-05-04 13:18 53.93426 -89.83900 33285 ft 503 kts 304°
2026-05-04 13:18 53.97419 -89.93645 33299 ft 503 kts 304°
2026-05-04 13:19 54.01840 -90.02842 33312 ft 503 kts 314°
2026-05-04 13:19 54.06827 -90.11227 33323 ft 504 kts 315°
2026-05-04 13:20 54.11889 -90.19479 33356 ft 504 kts 316°
2026-05-04 13:20 54.16957 -90.27753 33358 ft 504 kts 315°
2026-05-04 13:21 54.22011 -90.36071 33379 ft 504 kts 315°
2026-05-04 13:21 54.27048 -90.44412 33391 ft 504 kts 315°
2026-05-04 13:22 54.32050 -90.52727 33391 ft 505 kts 315°
2026-05-04 13:22 54.37081 -90.61119 33408 ft 505 kts 315°
2026-05-04 13:23 54.42107 -90.69533 33412 ft 504 kts 315°
2026-05-04 13:23 54.47123 -90.77960 33425 ft 504 kts 315°
2026-05-04 13:24 54.52127 -90.86398 33435 ft 504 kts 315°
2026-05-04 13:24 54.57121 -90.94847 33441 ft 504 kts 315°
2026-05-04 13:25 54.64606 -91.07572 33452 ft 503 kts 315°
2026-05-04 13:25 54.69581 -91.16068 33465 ft 503 kts 315°
2026-05-04 13:26 54.74552 -91.24587 33476 ft 503 kts 315°
2026-05-04 13:26 54.79513 -91.33122 33483 ft 503 kts 315°
2026-05-04 13:27 54.84440 -91.41628 33492 ft 503 kts 315°
2026-05-04 13:27 54.89421 -91.50259 33500 ft 502 kts 315°
2026-05-04 13:28 54.94358 -91.58846 33508 ft 502 kts 315°
2026-05-04 13:28 54.99283 -91.67443 33517 ft 502 kts 315°
2026-05-04 13:29 55.04170 -91.76006 33525 ft 502 kts 315°
2026-05-04 13:29 55.09084 -91.84647 33534 ft 502 kts 315°
2026-05-04 13:30 55.13997 -91.93319 33544 ft 502 kts 315°
2026-05-04 13:30 55.18907 -92.02017 33548 ft 502 kts 315°
2026-05-04 13:31 55.23805 -92.10728 33558 ft 502 kts 315°
2026-05-04 13:31 55.28699 -92.19464 33564 ft 502 kts 315°
2026-05-04 13:32 55.33590 -92.28226 33574 ft 502 kts 315°
2026-05-04 13:32 55.38463 -92.36991 33578 ft 502 kts 315°
2026-05-04 13:33 55.43336 -92.45788 33584 ft 501 kts 315°
2026-05-04 13:33 55.48198 -92.54597 33592 ft 502 kts 315°
2026-05-04 13:34 55.53058 -92.63436 33596 ft 502 kts 315°
2026-05-04 13:34 55.57909 -92.72295 33602 ft 501 kts 315°
2026-05-04 13:35 55.65170 -92.85612 33611 ft 501 kts 314°
2026-05-04 13:36 55.70005 -92.94524 33626 ft 501 kts 315°
2026-05-04 13:36 55.74833 -93.03456 33622 ft 501 kts 314°
2026-05-04 13:37 55.79652 -93.12406 33623 ft 501 kts 315°
2026-05-04 13:37 55.84431 -93.21318 33627 ft 501 kts 314°
2026-05-04 13:38 55.89236 -93.30313 33636 ft 501 kts 315°
2026-05-04 13:38 55.94030 -93.39314 33645 ft 501 kts 314°
2026-05-04 13:39 55.98815 -93.48341 33650 ft 500 kts 315°
2026-05-04 13:39 56.03594 -93.57385 33643 ft 500 kts 314°
2026-05-04 13:40 56.08362 -93.66444 33655 ft 500 kts 314°
2026-05-04 13:40 56.13125 -93.75530 33647 ft 500 kts 314°
2026-05-04 13:41 56.17875 -93.84629 33660 ft 500 kts 314°
2026-05-04 13:41 56.22619 -93.93747 33656 ft 500 kts 314°
2026-05-04 13:42 56.29719 -94.07466 33654 ft 499 kts 314°
2026-05-04 13:42 56.34444 -94.16640 33656 ft 499 kts 314°
2026-05-04 13:43 56.39155 -94.25823 33659 ft 499 kts 314°
2026-05-04 13:43 56.43866 -94.35045 33655 ft 499 kts 314°
2026-05-04 13:44 56.48566 -94.44277 33664 ft 499 kts 314°
2026-05-04 13:44 56.53258 -94.53532 33662 ft 499 kts 314°
2026-05-04 13:45 56.57942 -94.62808 33662 ft 499 kts 314°
2026-05-04 13:45 56.62621 -94.72107 33662 ft 499 kts 314°
2026-05-04 13:46 56.67292 -94.81431 33662 ft 499 kts 314°
2026-05-04 13:46 56.71957 -94.90782 33664 ft 499 kts 314°
2026-05-04 13:47 56.76621 -95.00162 33672 ft 499 kts 314°
2026-05-04 13:47 56.81239 -95.09488 33670 ft 499 kts 314°
2026-05-04 13:48 56.85888 -95.18914 33675 ft 499 kts 314°
2026-05-04 13:48 56.90525 -95.28357 33674 ft 499 kts 314°
2026-05-04 13:49 56.95156 -95.37825 33679 ft 499 kts 313°
2026-05-04 13:49 56.99775 -95.47307 33684 ft 499 kts 313°
2026-05-04 13:50 57.04386 -95.56808 33681 ft 498 kts 313°
2026-05-04 13:50 57.08245 -95.64788 33687 ft 498 kts 313°
2026-05-04 13:51 57.13585 -95.75880 33688 ft 498 kts 313°
2026-05-04 13:51 57.17428 -95.83894 33690 ft 498 kts 313°
2026-05-04 13:52 57.24258 -95.98205 33698 ft 497 kts 313°
2026-05-04 13:53 57.28823 -96.07818 33704 ft 497 kts 313°
2026-05-04 13:53 57.33375 -96.17445 33709 ft 497 kts 313°
2026-05-04 13:54 57.40179 -96.31905 33714 ft 496 kts 313°
2026-05-04 13:55 57.46971 -96.46429 33719 ft 496 kts 313°
2026-05-04 13:55 57.53732 -96.60977 33725 ft 496 kts 313°
2026-05-04 13:56 57.58233 -96.70712 33733 ft 495 kts 313°
2026-05-04 13:57 57.64960 -96.85337 33737 ft 495 kts 313°
2026-05-04 13:58 57.73896 -97.04908 33744 ft 495 kts 313°
2026-05-04 13:58 57.80571 -97.19633 33755 ft 494 kts 313°
2026-05-04 13:59 57.85015 -97.29488 33769 ft 494 kts 313°
2026-05-04 14:00 57.91661 -97.44303 33770 ft 494 kts 313°
2026-05-04 14:00 57.98282 -97.59155 33781 ft 494 kts 312°
2026-05-04 14:01 58.02689 -97.69094 33786 ft 494 kts 312°
2026-05-04 14:02 58.09277 -97.84029 33793 ft 493 kts 312°
2026-05-04 14:02 58.13630 -97.93948 33798 ft 493 kts 312°
2026-05-04 14:03 58.18027 -98.04013 33802 ft 493 kts 312°
2026-05-04 14:03 58.22360 -98.13974 33809 ft 493 kts 312°
2026-05-04 14:04 58.28890 -98.29063 33821 ft 493 kts 312°
2026-05-04 14:04 58.33231 -98.39147 33824 ft 493 kts 312°
2026-05-04 14:05 58.39727 -98.54318 33826 ft 492 kts 312°
2026-05-04 14:06 58.44043 -98.64454 33824 ft 492 kts 312°
2026-05-04 14:06 58.48353 -98.74618 33827 ft 492 kts 311°
2026-05-04 14:07 58.52651 -98.84798 33828 ft 492 kts 311°
2026-05-04 14:07 58.56944 -98.95010 33839 ft 492 kts 311°
2026-05-04 14:08 58.61224 -99.05234 33846 ft 492 kts 311°
2026-05-04 14:08 58.65493 -99.15477 33865 ft 491 kts 311°
2026-05-04 14:09 58.71881 -99.30889 33880 ft 491 kts 311°
2026-05-04 14:10 58.78246 -99.46346 33891 ft 491 kts 311°
2026-05-04 14:10 58.82476 -99.56676 33897 ft 491 kts 311°
2026-05-04 14:11 58.86698 -99.67029 33903 ft 490 kts 311°
2026-05-04 14:11 58.93003 -99.82579 33915 ft 490 kts 311°
2026-05-04 14:12 58.97170 -99.92912 33913 ft 490 kts 311°
2026-05-04 14:13 59.03359 -100.08675 33927 ft 490 kts 308°
2026-05-04 14:13 59.07273 -100.19509 33931 ft 490 kts 308°
2026-05-04 14:14 59.11172 -100.30363 33935 ft 489 kts 308°
2026-05-04 14:14 59.17057 -100.46623 33948 ft 489 kts 308°
2026-05-04 14:15 59.24879 -100.68310 33957 ft 488 kts 308°
2026-05-04 14:16 59.30710 -100.84619 33967 ft 488 kts 308°
2026-05-04 14:17 59.36518 -101.00976 33970 ft 488 kts 308°
2026-05-04 14:18 59.42312 -101.17411 33981 ft 488 kts 307°
2026-05-04 14:19 59.50004 -101.39409 33999 ft 488 kts 307°
2026-05-04 14:19 59.53837 -101.50447 33998 ft 489 kts 307°
2026-05-04 14:20 59.57666 -101.61524 33994 ft 489 kts 307°
2026-05-04 14:20 59.61484 -101.72623 34011 ft 489 kts 307°
2026-05-04 14:21 59.67194 -101.89322 34022 ft 489 kts 307°
2026-05-04 14:21 59.70989 -102.00487 34029 ft 489 kts 307°
2026-05-04 14:22 59.74773 -102.11672 34031 ft 489 kts 307°
2026-05-04 14:22 59.78546 -102.22878 34032 ft 489 kts 307°
2026-05-04 14:23 59.84165 -102.39667 34053 ft 489 kts 306°
2026-05-04 14:24 59.87943 -102.51023 34056 ft 489 kts 306°
2026-05-04 14:24 59.91659 -102.62246 34056 ft 489 kts 306°
2026-05-04 14:25 59.95394 -102.73582 34062 ft 489 kts 306°
2026-05-04 14:25 60.00980 -102.90641 34072 ft 489 kts 306°
2026-05-04 14:26 60.04694 -103.02050 34082 ft 489 kts 306°
2026-05-04 14:26 60.08397 -103.13482 34091 ft 490 kts 306°
2026-05-04 14:27 60.12089 -103.24938 34098 ft 490 kts 305°
2026-05-04 14:27 60.15778 -103.36440 34103 ft 490 kts 305°
2026-05-04 14:28 60.19457 -103.47968 34110 ft 490 kts 305°
2026-05-04 14:28 60.23127 -103.59525 34112 ft 490 kts 305°
2026-05-04 14:29 60.30439 -103.82723 34138 ft 490 kts 304°
2026-05-04 14:30 60.34053 -103.94274 34134 ft 490 kts 304°
2026-05-04 14:31 60.39492 -104.11774 34137 ft 490 kts 304°
2026-05-04 14:32 60.46713 -104.35208 34160 ft 491 kts 304°
2026-05-04 14:32 60.50310 -104.46968 34172 ft 491 kts 304°
2026-05-04 14:33 60.53898 -104.58763 34180 ft 491 kts 304°
2026-05-04 14:33 60.57472 -104.70572 34182 ft 491 kts 304°
2026-05-04 14:34 60.61038 -104.82413 34192 ft 491 kts 304°
2026-05-04 14:34 60.64593 -104.94279 34196 ft 491 kts 303°
2026-05-04 14:35 60.68138 -105.06171 34203 ft 491 kts 303°
2026-05-04 14:35 60.71670 -105.18082 34206 ft 491 kts 303°
2026-05-04 14:36 60.75195 -105.30034 34213 ft 491 kts 303°
2026-05-04 14:36 60.78704 -105.41994 34214 ft 491 kts 303°
2026-05-04 14:37 60.82184 -105.53914 34223 ft 490 kts 303°
2026-05-04 14:37 60.85696 -105.66010 34230 ft 490 kts 303°
2026-05-04 14:38 60.89149 -105.77963 34232 ft 490 kts 303°
2026-05-04 14:38 60.92618 -105.90038 34241 ft 490 kts 303°
2026-05-04 14:39 60.96072 -106.02122 34245 ft 490 kts 302°
2026-05-04 14:39 60.99518 -106.14243 34247 ft 490 kts 302°
2026-05-04 14:40 61.04080 -106.30390 34257 ft 490 kts 302°
2026-05-04 14:40 61.07496 -106.42554 34261 ft 490 kts 302°
2026-05-04 14:41 61.10900 -106.54742 34262 ft 489 kts 302°
2026-05-04 14:42 61.17667 -106.79171 34270 ft 489 kts 302°
2026-05-04 14:42 61.21036 -106.91428 34273 ft 489 kts 302°
2026-05-04 14:43 61.24392 -107.03706 34273 ft 489 kts 302°
2026-05-04 14:43 61.27736 -107.16010 34280 ft 489 kts 302°
2026-05-04 14:44 61.31064 -107.28321 34281 ft 488 kts 301°
2026-05-04 14:44 61.34383 -107.40666 34286 ft 488 kts 301°
2026-05-04 14:45 61.37687 -107.53023 34288 ft 488 kts 301°
2026-05-04 14:45 61.40977 -107.65395 34289 ft 488 kts 301°
2026-05-04 14:46 61.44257 -107.77798 34288 ft 488 kts 301°
2026-05-04 14:46 61.47524 -107.90218 34289 ft 487 kts 301°
2026-05-04 14:47 61.50776 -108.02655 34286 ft 487 kts 301°
2026-05-04 14:47 61.54016 -108.15112 34297 ft 487 kts 301°
2026-05-04 14:48 61.57225 -108.27522 34296 ft 486 kts 301°
2026-05-04 14:48 61.60438 -108.40013 34290 ft 486 kts 301°
2026-05-04 14:49 61.63641 -108.52536 34303 ft 486 kts 300°
2026-05-04 14:49 61.66832 -108.65086 34297 ft 486 kts 300°
2026-05-04 14:50 61.70008 -108.77647 34293 ft 486 kts 300°
2026-05-04 14:50 61.73174 -108.90237 34289 ft 485 kts 300°
2026-05-04 14:51 61.76322 -109.02832 34306 ft 485 kts 300°
2026-05-04 14:51 61.79462 -109.15463 34306 ft 485 kts 300°
2026-05-04 14:52 61.82587 -109.28104 34306 ft 485 kts 300°
2026-05-04 14:52 61.85702 -109.40783 34306 ft 485 kts 300°
2026-05-04 14:53 61.88805 -109.53485 34308 ft 485 kts 299°
2026-05-04 14:53 61.91899 -109.66224 34305 ft 485 kts 299°
2026-05-04 14:54 61.94977 -109.78969 34300 ft 485 kts 299°
2026-05-04 14:54 61.98044 -109.91743 34304 ft 485 kts 299°
2026-05-04 14:55 62.01106 -110.04535 34306 ft 485 kts 299°
2026-05-04 14:55 62.04245 -110.17118 34299 ft 484 kts 300°
2026-05-04 14:56 62.07452 -110.29846 34304 ft 484 kts 300°
2026-05-04 14:56 62.10589 -110.42443 34300 ft 484 kts 300°
2026-05-04 14:57 62.13720 -110.55161 34294 ft 483 kts 299°
2026-05-04 14:57 62.16834 -110.67897 34293 ft 483 kts 299°
2026-05-04 14:58 62.19937 -110.80663 34290 ft 483 kts 299°
2026-05-04 14:58 62.23030 -110.93462 34290 ft 483 kts 299°
2026-05-04 14:59 62.26112 -111.06286 34294 ft 483 kts 299°
2026-05-04 15:00 62.30706 -111.25546 34301 ft 483 kts 298°
2026-05-04 15:00 62.33752 -111.38410 34302 ft 483 kts 298°
2026-05-04 15:01 62.38299 -111.57754 34313 ft 483 kts 298°
2026-05-04 15:01 62.41316 -111.70684 34320 ft 482 kts 298°
2026-05-04 15:02 62.44319 -111.83631 34311 ft 482 kts 298°
2026-05-04 15:02 62.47309 -111.96608 34313 ft 482 kts 298°
2026-05-04 15:03 62.50286 -112.09601 34306 ft 482 kts 298°
2026-05-04 15:03 62.53249 -112.22610 34311 ft 481 kts 298°
2026-05-04 15:04 62.56197 -112.35632 34310 ft 481 kts 297°
2026-05-04 15:04 62.59131 -112.48672 34309 ft 481 kts 297°
2026-05-04 15:05 62.62050 -112.61728 34306 ft 480 kts 297°
2026-05-04 15:05 62.64954 -112.74796 34308 ft 480 kts 297°
2026-05-04 15:06 62.67833 -112.87829 34306 ft 479 kts 297°
2026-05-04 15:07 62.72142 -113.07491 34308 ft 479 kts 297°
2026-05-04 15:07 62.74996 -113.20615 34321 ft 478 kts 297°
2026-05-04 15:08 62.77814 -113.33650 34304 ft 478 kts 297°
2026-05-04 15:08 62.80634 -113.46780 34319 ft 477 kts 296°
2026-05-04 15:09 62.83440 -113.59925 34297 ft 477 kts 296°
2026-05-04 15:09 62.86229 -113.73077 34308 ft 476 kts 296°
2026-05-04 15:10 62.90391 -113.92849 34301 ft 476 kts 296°
2026-05-04 15:11 62.94515 -114.12632 34310 ft 475 kts 296°
2026-05-04 15:11 62.97247 -114.25843 34313 ft 475 kts 296°
2026-05-04 15:12 62.99966 -114.39076 34311 ft 474 kts 296°
2026-05-04 15:12 63.02665 -114.52300 34310 ft 474 kts 296°
2026-05-04 15:13 63.05355 -114.65561 34305 ft 473 kts 296°
2026-05-04 15:13 63.08027 -114.78816 34307 ft 473 kts 295°
2026-05-04 15:14 63.10685 -114.92088 34305 ft 473 kts 295°
2026-05-04 15:14 63.13328 -115.05375 34299 ft 472 kts 295°
2026-05-04 15:15 63.15957 -115.18675 34297 ft 471 kts 295°
2026-05-04 15:15 63.18570 -115.31985 34296 ft 471 kts 295°
2026-05-04 15:16 63.22460 -115.51956 34292 ft 470 kts 295°
2026-05-04 15:17 63.26316 -115.71952 34288 ft 469 kts 295°
2026-05-04 15:17 63.30135 -115.91957 34282 ft 468 kts 295°
2026-05-04 15:18 63.32663 -116.05310 34287 ft 468 kts 295°
2026-05-04 15:19 63.36423 -116.25337 34276 ft 467 kts 294°
2026-05-04 15:19 63.40153 -116.45405 34275 ft 466 kts 294°
2026-05-04 15:20 63.42618 -116.58777 34273 ft 466 kts 294°
2026-05-04 15:20 63.45065 -116.72149 34272 ft 465 kts 294°
2026-05-04 15:21 63.47502 -116.85552 34270 ft 464 kts 294°
2026-05-04 15:22 63.51123 -117.05640 34264 ft 463 kts 294°
2026-05-04 15:22 63.54709 -117.25741 34261 ft 463 kts 294°
2026-05-04 15:23 63.57083 -117.39165 34258 ft 462 kts 294°
2026-05-04 15:23 63.59440 -117.52585 34254 ft 462 kts 293°
2026-05-04 15:24 63.64094 -117.79368 34255 ft 461 kts 293°
2026-05-04 15:25 63.66405 -117.92805 34253 ft 460 kts 293°
2026-05-04 15:26 63.69845 -118.12981 34252 ft 459 kts 293°
2026-05-04 15:26 63.72869 -118.30897 34249 ft 459 kts 293°
2026-05-04 15:27 63.76245 -118.51103 34247 ft 458 kts 293°
2026-05-04 15:28 63.79585 -118.71319 34247 ft 457 kts 292°
2026-05-04 15:29 63.82892 -118.91547 34246 ft 456 kts 292°
2026-05-04 15:30 63.90471 -119.38759 34246 ft 454 kts 292°
2026-05-04 15:31 63.93645 -119.58902 34255 ft 453 kts 292°
2026-05-04 15:32 63.98884 -119.92639 34250 ft 451 kts 292°
2026-05-04 15:34 64.06011 -120.24148 34244 ft 447 kts 301°
2026-05-04 15:34 64.10617 -120.42657 34241 ft 446 kts 301°
2026-05-04 15:35 64.15171 -120.61201 34246 ft 445 kts 301°
2026-05-04 15:36 64.19685 -120.79768 34240 ft 444 kts 301°
2026-05-04 15:36 64.22657 -120.92081 34241 ft 443 kts 301°
2026-05-04 15:37 64.25632 -121.04470 34239 ft 442 kts 300°
2026-05-04 15:37 64.28589 -121.16861 34241 ft 441 kts 300°
2026-05-04 15:38 64.31532 -121.29258 34242 ft 441 kts 300°
2026-05-04 15:38 64.34460 -121.41664 34240 ft 440 kts 300°
2026-05-04 15:39 64.37373 -121.54076 34241 ft 439 kts 300°
2026-05-04 15:40 64.41708 -121.72680 34238 ft 438 kts 300°
2026-05-04 15:40 64.44578 -121.85087 34238 ft 437 kts 300°
2026-05-04 15:41 64.47431 -121.97491 34236 ft 436 kts 300°
2026-05-04 15:41 64.50269 -122.09899 34235 ft 435 kts 299°
2026-05-04 15:42 64.53092 -122.22315 34234 ft 434 kts 299°
2026-05-04 15:42 64.55898 -122.34728 34237 ft 433 kts 299°
2026-05-04 15:43 64.58689 -122.47145 34238 ft 432 kts 299°
2026-05-04 15:43 64.61458 -122.59539 34238 ft 432 kts 299°
2026-05-04 15:44 64.64222 -122.71981 34242 ft 431 kts 298°
2026-05-04 15:44 64.66964 -122.84394 34229 ft 430 kts 298°
2026-05-04 15:45 64.69692 -122.96813 34241 ft 429 kts 298°
2026-05-04 15:45 64.72404 -123.09237 34239 ft 428 kts 298°
2026-05-04 15:46 64.75099 -123.21656 34243 ft 428 kts 298°
2026-05-04 15:46 64.77781 -123.34084 34228 ft 427 kts 298°
2026-05-04 15:47 64.80448 -123.46516 34230 ft 426 kts 298°
2026-05-04 15:47 64.83101 -123.58954 34225 ft 426 kts 298°
2026-05-04 15:48 64.85739 -123.71394 34240 ft 425 kts 297°
2026-05-04 15:48 64.89666 -123.90053 34241 ft 424 kts 297°
2026-05-04 15:49 64.92267 -124.02509 34240 ft 423 kts 297°
2026-05-04 15:49 64.94853 -124.14959 34241 ft 422 kts 297°
2026-05-04 15:50 64.97427 -124.27428 34241 ft 422 kts 297°
2026-05-04 15:50 64.99966 -124.39802 34239 ft 421 kts 297°
2026-05-04 15:51 65.02525 -124.52351 34242 ft 420 kts 296°
2026-05-04 15:51 65.05037 -124.64737 34244 ft 420 kts 296°
2026-05-04 15:52 65.07553 -124.77228 34249 ft 420 kts 296°
2026-05-04 15:52 65.10056 -124.89719 34248 ft 419 kts 296°
2026-05-04 15:53 65.12546 -125.02218 34245 ft 418 kts 296°
2026-05-04 15:53 65.15020 -125.14717 34240 ft 418 kts 296°
2026-05-04 15:54 65.17477 -125.27211 34243 ft 417 kts 296°
2026-05-04 15:54 65.19926 -125.39732 34240 ft 417 kts 295°
2026-05-04 15:55 65.22363 -125.52272 34245 ft 417 kts 295°
2026-05-04 15:55 65.24788 -125.64826 34245 ft 417 kts 295°
2026-05-04 15:56 65.27206 -125.77419 34247 ft 417 kts 295°
2026-05-04 15:56 65.29610 -125.90019 34242 ft 417 kts 295°
2026-05-04 15:57 65.32002 -126.02637 34248 ft 416 kts 295°
2026-05-04 15:57 65.34381 -126.15265 34248 ft 416 kts 294°
2026-05-04 15:58 65.36751 -126.27924 34247 ft 416 kts 294°
2026-05-04 15:58 65.39106 -126.40584 34247 ft 415 kts 294°
2026-05-04 15:59 65.41450 -126.53256 34245 ft 415 kts 294°
2026-05-04 15:59 65.43781 -126.65947 34247 ft 415 kts 294°
2026-05-04 16:00 65.46082 -126.78547 34247 ft 414 kts 294°
2026-05-04 16:00 65.48390 -126.91270 34244 ft 414 kts 294°
2026-05-04 16:01 65.50685 -127.03991 34251 ft 414 kts 294°
2026-05-04 16:01 65.52964 -127.16722 34261 ft 414 kts 293°
2026-05-04 16:02 65.55238 -127.29499 34246 ft 415 kts 293°
2026-05-04 16:03 65.58630 -127.48722 34243 ft 415 kts 293°
2026-05-04 16:03 65.60882 -127.61584 34240 ft 415 kts 293°
2026-05-04 16:04 65.63122 -127.74464 34240 ft 416 kts 292°
2026-05-04 16:04 65.66470 -127.93868 34241 ft 416 kts 292°
2026-05-04 16:05 65.68688 -128.06831 34236 ft 417 kts 292°
2026-05-04 16:06 65.72000 -128.26350 34231 ft 417 kts 292°
2026-05-04 16:07 65.76381 -128.52486 34228 ft 418 kts 292°
2026-05-04 16:08 65.80711 -128.78663 34223 ft 418 kts 291°
2026-05-04 16:09 65.86082 -129.11644 34222 ft 419 kts 291°
2026-05-04 16:10 65.90347 -129.38252 34223 ft 419 kts 291°
2026-05-04 16:11 65.94544 -129.64808 34222 ft 420 kts 290°
2026-05-04 16:12 66.00755 -130.05019 34223 ft 420 kts 288°
2026-05-04 16:13 66.03800 -130.32766 34219 ft 420 kts 285°
2026-05-04 16:14 66.06825 -130.60553 34218 ft 420 kts 285°
2026-05-04 16:16 66.10374 -130.92978 34216 ft 420 kts 285°
2026-05-04 16:17 66.14095 -131.27851 34202 ft 421 kts 284°
2026-05-04 16:18 66.17018 -131.55849 34212 ft 421 kts 284°
2026-05-04 16:19 66.20604 -131.90975 34204 ft 421 kts 283°
2026-05-04 16:20 66.24112 -132.26225 34204 ft 421 kts 283°
2026-05-04 16:22 66.27544 -132.61600 34200 ft 422 kts 283°
2026-05-04 16:23 66.31561 -133.04244 34194 ft 423 kts 282°
2026-05-04 16:25 66.35458 -133.46988 34196 ft 423 kts 282°
2026-05-04 16:26 66.39879 -133.97272 34201 ft 425 kts 281°
2026-05-04 16:28 66.42949 -134.33435 34201 ft 426 kts 281°
2026-05-04 16:29 66.47114 -134.84354 34205 ft 427 kts 280°
2026-05-04 16:31 66.49997 -135.20929 34199 ft 429 kts 280°
2026-05-04 16:32 66.53352 -135.65052 34186 ft 430 kts 279°
2026-05-04 16:33 66.55527 -135.94621 34189 ft 431 kts 279°
2026-05-04 16:34 66.57124 -136.16856 34188 ft 432 kts 279°
2026-05-04 16:35 66.60218 -136.61380 34173 ft 432 kts 278°
2026-05-04 16:36 66.61722 -136.83739 34169 ft 432 kts 278°
2026-05-04 16:37 66.63196 -137.06160 34162 ft 433 kts 278°
2026-05-04 16:38 66.65116 -137.36167 34159 ft 435 kts 277°
2026-05-04 16:39 66.67445 -137.73886 34165 ft 436 kts 277°
2026-05-04 16:40 66.69251 -138.04249 34161 ft 438 kts 277°
2026-05-04 16:41 66.71433 -138.42377 34165 ft 439 kts 276°
2026-05-04 16:43 66.73529 -138.80701 34161 ft 441 kts 276°
2026-05-04 16:43 66.74745 -139.03773 34163 ft 442 kts 276°
2026-05-04 16:45 66.77084 -139.50203 34157 ft 444 kts 275°
2026-05-04 16:46 66.78932 -139.88992 34151 ft 446 kts 275°
2026-05-04 16:47 66.80351 -140.20263 34138 ft 447 kts 275°
2026-05-04 16:48 66.81710 -140.51656 34136 ft 448 kts 274°
2026-05-04 16:49 66.83012 -140.83175 34133 ft 450 kts 274°
2026-05-04 16:50 66.84262 -141.14840 34133 ft 451 kts 274°
2026-05-04 16:51 66.84870 -141.30408 33993 ft 420 kts 272°
2026-05-04 16:51 66.85149 -141.37602 34135 ft 401 kts 272°
2026-05-04 16:52 66.86151 -141.65373 34126 ft 395 kts 272°
2026-05-04 16:53 66.86879 -141.86267 34121 ft 395 kts 271°
2026-05-04 16:53 66.87584 -142.07220 34339 ft 398 kts 271°
2026-05-04 16:54 66.87814 -142.14236 34499 ft 399 kts 271°
2026-05-04 16:55 66.88711 -142.42646 35039 ft 406 kts 271°
2026-05-04 16:55 66.89147 -142.57017 35302 ft 409 kts 271°
2026-05-04 16:56 66.89573 -142.71499 35559 ft 412 kts 271°
2026-05-04 16:56 66.90192 -142.93437 35931 ft 416 kts 270°
2026-05-04 16:57 66.90393 -143.00797 36045 ft 418 kts 270°
2026-05-04 16:57 66.90786 -143.15600 36280 ft 420 kts 270°
2026-05-04 16:58 66.91355 -143.37999 36622 ft 424 kts 270°
2026-05-04 16:58 66.91539 -143.45509 36718 ft 426 kts 270°
2026-05-04 16:59 66.91897 -143.60597 36935 ft 428 kts 270°
2026-05-04 17:00 66.92574 -143.90950 37330 ft 432 kts 270°
2026-05-04 17:00 66.92999 -144.11500 37578 ft 435 kts 269°
2026-05-04 17:01 66.93349 -144.29464 37788 ft 438 kts 269°
2026-05-04 17:01 66.93634 -144.44994 37966 ft 440 kts 269°
2026-05-04 17:02 66.93863 -144.58082 38083 ft 442 kts 269°
2026-05-04 17:03 66.94246 -144.81494 38121 ft 442 kts 269°
2026-05-04 17:03 66.94597 -145.05014 38119 ft 443 kts 269°
2026-05-04 17:04 66.95009 -145.36451 38116 ft 443 kts 268°
2026-05-04 17:05 66.95360 -145.67927 38119 ft 444 kts 268°
2026-05-04 17:06 66.95582 -145.91582 38116 ft 445 kts 268°
2026-05-04 17:07 66.95750 -146.12591 38113 ft 445 kts 267°
2026-05-04 17:07 66.95875 -146.31062 38114 ft 446 kts 267°
2026-05-04 17:08 66.96004 -146.54804 38120 ft 446 kts 267°
2026-05-04 17:09 66.96071 -146.70656 38119 ft 447 kts 267°
2026-05-04 17:09 66.96121 -146.86519 38113 ft 447 kts 266°
2026-05-04 17:10 66.96178 -147.26223 38101 ft 448 kts 266°
2026-05-04 17:11 66.96174 -147.42023 38103 ft 448 kts 266°
2026-05-04 17:12 66.96137 -147.65924 38108 ft 449 kts 266°
2026-05-04 17:13 66.95995 -148.05764 38113 ft 449 kts 265°
2026-05-04 17:14 66.95810 -148.37664 38121 ft 450 kts 265°
2026-05-04 17:15 66.95628 -148.61613 38116 ft 450 kts 265°
2026-05-04 17:16 66.95331 -148.93589 38124 ft 451 kts 264°
2026-05-04 17:17 66.94969 -149.25622 38119 ft 452 kts 264°
2026-05-04 17:18 66.94534 -149.57713 38117 ft 453 kts 264°
2026-05-04 17:19 66.94042 -149.89844 38113 ft 454 kts 263°
2026-05-04 17:20 66.93483 -150.22007 38114 ft 454 kts 263°
2026-05-04 17:20 66.93021 -150.46144 38111 ft 454 kts 263°
2026-05-04 17:21 66.92347 -150.78237 38114 ft 455 kts 263°
2026-05-04 17:22 66.91983 -150.94457 38109 ft 456 kts 263°
2026-05-04 17:23 66.91210 -151.26605 38098 ft 456 kts 262°
2026-05-04 17:24 66.90501 -151.50787 38097 ft 455 kts 257°
2026-05-04 17:25 66.87201 -151.81616 38103 ft 452 kts 250°
2026-05-04 17:26 66.83435 -152.12085 38113 ft 452 kts 250°
2026-05-04 17:27 66.78694 -152.50135 38121 ft 453 kts 249°
2026-05-04 17:28 66.74830 -152.80519 38116 ft 454 kts 249°
2026-05-04 17:29 66.68912 -153.26010 38117 ft 455 kts 249°
2026-05-04 17:31 66.63872 -153.63815 38117 ft 455 kts 248°
2026-05-04 17:32 66.58733 -154.01525 38121 ft 456 kts 248°
2026-05-04 17:33 66.54569 -154.31497 38122 ft 456 kts 248°
2026-05-04 17:34 66.50331 -154.61485 38129 ft 456 kts 248°
2026-05-04 17:35 66.44948 -154.98857 38132 ft 457 kts 247°
2026-05-04 17:36 66.42768 -155.13778 38134 ft 457 kts 247°
2026-05-04 17:36 66.40574 -155.28671 38138 ft 457 kts 247°
2026-05-04 17:37 66.38359 -155.43577 38139 ft 458 kts 247°
2026-05-04 17:37 66.36133 -155.58442 38138 ft 458 kts 246°
2026-05-04 17:38 66.33890 -155.73294 38145 ft 458 kts 246°
2026-05-04 17:38 66.31631 -155.88132 38148 ft 458 kts 246°
2026-05-04 17:39 66.28217 -156.10335 38153 ft 459 kts 246°
2026-05-04 17:39 66.25921 -156.25126 38154 ft 459 kts 246°
2026-05-04 17:40 66.23607 -156.39903 38157 ft 459 kts 246°
2026-05-04 17:40 66.21281 -156.54645 38156 ft 460 kts 246°
2026-05-04 17:41 66.18940 -156.69367 38153 ft 460 kts 246°
2026-05-04 17:41 66.16584 -156.84074 38146 ft 460 kts 245°
2026-05-04 17:42 66.14210 -156.98768 38135 ft 460 kts 245°
2026-05-04 17:42 66.11820 -157.13449 38101 ft 461 kts 245°
2026-05-04 17:43 66.09419 -157.28091 38092 ft 461 kts 245°
2026-05-04 17:43 66.07016 -157.42629 38074 ft 461 kts 245°
2026-05-04 17:44 66.04582 -157.57242 38059 ft 462 kts 245°
2026-05-04 17:44 66.02130 -157.71857 38054 ft 462 kts 245°
2026-05-04 17:45 65.99664 -157.86444 38053 ft 462 kts 245°
2026-05-04 17:45 65.97182 -158.01012 38050 ft 463 kts 245°
2026-05-04 17:46 65.94684 -158.15571 38048 ft 463 kts 245°
2026-05-04 17:46 65.92169 -158.30114 38044 ft 464 kts 244°
2026-05-04 17:47 65.89639 -158.44636 38046 ft 464 kts 244°
2026-05-04 17:47 65.87523 -158.56700 38046 ft 464 kts 244°
2026-05-04 17:48 65.84529 -158.73644 38046 ft 465 kts 244°
2026-05-04 17:48 65.81953 -158.88111 38049 ft 465 kts 244°
2026-05-04 17:49 65.79800 -159.00124 38051 ft 465 kts 244°
2026-05-04 17:49 65.77194 -159.14568 38072 ft 466 kts 244°
2026-05-04 17:50 65.74575 -159.28973 38101 ft 466 kts 244°
2026-05-04 17:50 65.71939 -159.43370 38140 ft 466 kts 244°
2026-05-04 17:51 65.69289 -159.57739 38156 ft 466 kts 244°
2026-05-04 17:51 65.66624 -159.72087 38158 ft 467 kts 243°
2026-05-04 17:52 65.63942 -159.86427 38161 ft 467 kts 243°
2026-05-04 17:52 65.61247 -160.00734 38164 ft 467 kts 243°
2026-05-04 17:53 65.58535 -160.15026 38162 ft 468 kts 243°
2026-05-04 17:53 65.55809 -160.29295 38164 ft 468 kts 243°
2026-05-04 17:54 65.53083 -160.43464 38164 ft 469 kts 243°
2026-05-04 17:54 65.50323 -160.57712 38162 ft 469 kts 243°
2026-05-04 17:55 65.47550 -160.71926 38158 ft 469 kts 243°
2026-05-04 17:55 65.44757 -160.86144 38160 ft 470 kts 243°
2026-05-04 17:56 65.41951 -161.00334 38154 ft 470 kts 243°
2026-05-04 17:56 65.39131 -161.14495 38151 ft 471 kts 243°
2026-05-04 17:57 65.36294 -161.28645 38153 ft 471 kts 243°
2026-05-04 17:57 65.33441 -161.42774 38152 ft 471 kts 242°
2026-05-04 17:58 65.30575 -161.56876 38152 ft 471 kts 242°
2026-05-04 17:58 65.27695 -161.70948 38150 ft 471 kts 242°
2026-05-04 17:59 65.24798 -161.85009 38146 ft 472 kts 242°
2026-05-04 18:00 65.20428 -162.06042 38149 ft 472 kts 242°
2026-05-04 18:00 65.17499 -162.20024 38138 ft 472 kts 242°
2026-05-04 18:01 65.14572 -162.33906 38148 ft 472 kts 242°
2026-05-04 18:01 65.11596 -162.47926 38147 ft 472 kts 242°
2026-05-04 18:02 65.07153 -162.68680 38164 ft 473 kts 242°
2026-05-04 18:02 65.04158 -162.82559 38161 ft 473 kts 242°
2026-05-04 18:03 65.01148 -162.96417 38156 ft 474 kts 242°
2026-05-04 18:03 64.98123 -163.10257 38152 ft 474 kts 241°
2026-05-04 18:04 64.95084 -163.24072 38154 ft 474 kts 241°
2026-05-04 18:05 64.90495 -163.44759 38156 ft 475 kts 241°
2026-05-04 18:05 64.87415 -163.58530 38154 ft 475 kts 241°
2026-05-04 18:06 64.82772 -163.79123 38151 ft 476 kts 241°
2026-05-04 18:06 64.79658 -163.92832 38154 ft 476 kts 241°
2026-05-04 18:07 64.76529 -164.06511 38157 ft 476 kts 241°
2026-05-04 18:07 64.73383 -164.20187 38160 ft 477 kts 241°
2026-05-04 18:08 64.70222 -164.33831 38158 ft 477 kts 240°
2026-05-04 18:08 64.67050 -164.47445 38162 ft 477 kts 240°
2026-05-04 18:09 64.60659 -164.74612 38166 ft 478 kts 240°
2026-05-04 18:10 64.57461 -164.88081 38169 ft 478 kts 240°
2026-05-04 18:10 64.54231 -165.01598 38171 ft 478 kts 240°
2026-05-04 18:11 64.50991 -165.15076 38174 ft 478 kts 240°
2026-05-04 18:11 64.47733 -165.28535 38174 ft 478 kts 240°
2026-05-04 18:12 64.44349 -165.41804 38173 ft 478 kts 238°
2026-05-04 18:12 64.40894 -165.54964 38173 ft 478 kts 238°
2026-05-04 18:13 64.37439 -165.68120 38173 ft 479 kts 238°
2026-05-04 18:14 64.32263 -165.87824 38169 ft 479 kts 238°
2026-05-04 18:14 64.28800 -166.00925 38169 ft 479 kts 238°
2026-05-04 18:15 64.21834 -166.27043 38168 ft 479 kts 238°
2026-05-04 18:16 64.18334 -166.40051 38168 ft 479 kts 238°
2026-05-04 18:16 64.14818 -166.53041 38166 ft 479 kts 238°
2026-05-04 18:17 64.09551 -166.72489 38169 ft 479 kts 238°
2026-05-04 18:18 64.04293 -166.91818 38170 ft 479 kts 238°
2026-05-04 18:18 64.00756 -167.04719 38173 ft 480 kts 238°
2026-05-04 18:19 63.95423 -167.24029 38175 ft 481 kts 238°
2026-05-04 18:19 63.91846 -167.36888 38172 ft 481 kts 238°
2026-05-04 18:20 63.88256 -167.49717 38172 ft 481 kts 238°
2026-05-04 18:20 63.84654 -167.62521 38172 ft 482 kts 238°
2026-05-04 18:21 63.81035 -167.75309 38170 ft 482 kts 238°
2026-05-04 18:21 63.77405 -167.88065 38173 ft 482 kts 238°
2026-05-04 18:22 63.73763 -168.00788 38168 ft 483 kts 237°
2026-05-04 18:22 63.70105 -168.13496 38170 ft 483 kts 237°
2026-05-04 18:23 63.66435 -168.26176 38170 ft 483 kts 237°
2026-05-04 18:23 63.62745 -168.38854 38173 ft 484 kts 237°
2026-05-04 18:24 63.59046 -168.51490 38166 ft 484 kts 237°
2026-05-04 18:24 63.55332 -168.64106 38169 ft 484 kts 237°
2026-05-04 18:25 63.51606 -168.76694 38166 ft 485 kts 237°
2026-05-04 18:25 63.47866 -168.89258 38167 ft 485 kts 237°
2026-05-04 18:26 63.44119 -169.01776 38168 ft 485 kts 237°
2026-05-04 18:26 63.40380 -169.14196 38164 ft 485 kts 237°
2026-05-04 18:27 63.36606 -169.26668 38163 ft 485 kts 237°
2026-05-04 18:27 63.32824 -169.39102 38168 ft 485 kts 237°
2026-05-04 18:28 63.29033 -169.51527 38163 ft 485 kts 237°
2026-05-04 18:28 63.25232 -169.63918 38166 ft 485 kts 237°
2026-05-04 18:29 63.21418 -169.76283 38155 ft 486 kts 237°
2026-05-04 18:29 63.17597 -169.88606 38170 ft 485 kts 237°
2026-05-04 18:30 63.11838 -170.07050 38166 ft 486 kts 237°
2026-05-04 18:31 63.07988 -170.19297 38170 ft 486 kts 236°
2026-05-04 18:31 63.04125 -170.31521 38166 ft 486 kts 236°
2026-05-04 18:32 63.00253 -170.43706 38159 ft 486 kts 236°
2026-05-04 18:32 62.96366 -170.55874 38157 ft 486 kts 236°
2026-05-04 18:33 62.92474 -170.67995 38162 ft 486 kts 236°
2026-05-04 18:33 62.88591 -170.80020 38155 ft 486 kts 236°
2026-05-04 18:34 62.84673 -170.92089 38156 ft 486 kts 236°
2026-05-04 18:34 62.80747 -171.04120 38159 ft 486 kts 236°
2026-05-04 18:35 62.76807 -171.16131 38162 ft 486 kts 236°
2026-05-04 18:35 62.72857 -171.28107 38163 ft 486 kts 236°
2026-05-04 18:36 62.68895 -171.40060 38159 ft 486 kts 236°
2026-05-04 18:36 62.64925 -171.51974 38163 ft 486 kts 236°
2026-05-04 18:37 62.61615 -171.61862 38162 ft 487 kts 236°
2026-05-04 18:37 62.56955 -171.75734 38164 ft 487 kts 236°
2026-05-04 18:38 62.52955 -171.87566 38166 ft 487 kts 236°
2026-05-04 18:38 62.48940 -171.99378 38168 ft 487 kts 236°
2026-05-04 18:39 62.45598 -172.09169 38167 ft 487 kts 236°
2026-05-04 18:39 62.41566 -172.20927 38169 ft 487 kts 236°
2026-05-04 18:40 62.37521 -172.32659 38173 ft 487 kts 236°
2026-05-04 18:40 62.33468 -172.44360 38173 ft 488 kts 236°
2026-05-04 18:41 62.29402 -172.56036 38173 ft 488 kts 235°
2026-05-04 18:41 62.25327 -172.67678 38174 ft 488 kts 235°
2026-05-04 18:42 62.21236 -172.79305 38172 ft 488 kts 235°
2026-05-04 18:42 62.17139 -172.90892 38169 ft 488 kts 235°
2026-05-04 18:43 62.13031 -173.02452 38171 ft 488 kts 235°
2026-05-04 18:43 62.08911 -173.13985 38174 ft 488 kts 235°
2026-05-04 18:44 62.04781 -173.25491 38178 ft 488 kts 235°
2026-05-04 18:44 62.00640 -173.36966 38176 ft 489 kts 235°
2026-05-04 18:45 61.96490 -173.48412 38188 ft 489 kts 235°
2026-05-04 18:45 61.92356 -173.59756 38178 ft 489 kts 235°
2026-05-04 18:46 61.88183 -173.71149 38181 ft 489 kts 234°
2026-05-04 18:46 61.83998 -173.82519 38183 ft 489 kts 234°
2026-05-04 18:47 61.79808 -173.93847 38188 ft 489 kts 234°
2026-05-04 18:47 61.75600 -174.05166 38190 ft 489 kts 234°
2026-05-04 18:48 61.71389 -174.16439 38188 ft 490 kts 234°
2026-05-04 18:48 61.67161 -174.27700 38191 ft 490 kts 234°
2026-05-04 18:49 61.62927 -174.38924 38191 ft 490 kts 234°
2026-05-04 18:49 61.58682 -174.50121 38191 ft 490 kts 234°
2026-05-04 18:50 61.54423 -174.61303 38198 ft 490 kts 234°
2026-05-04 18:50 61.50145 -174.72430 38198 ft 491 kts 234°
2026-05-04 18:51 61.45856 -174.83537 38203 ft 491 kts 234°
2026-05-04 18:51 61.41558 -174.94623 38198 ft 491 kts 233°
2026-05-04 18:52 61.37248 -175.05688 38202 ft 491 kts 233°
2026-05-04 18:52 61.32926 -175.16733 38201 ft 492 kts 233°
2026-05-04 18:53 61.28597 -175.27742 38204 ft 492 kts 233°
2026-05-04 18:53 61.24284 -175.38656 38205 ft 492 kts 233°
2026-05-04 18:54 61.19933 -175.49616 38209 ft 492 kts 233°
2026-05-04 18:54 61.15569 -175.60555 38211 ft 492 kts 233°
2026-05-04 18:55 61.11195 -175.71464 38210 ft 493 kts 233°
2026-05-04 18:55 61.04613 -175.87785 38213 ft 493 kts 233°
2026-05-04 18:56 61.00212 -175.98634 38215 ft 493 kts 233°
2026-05-04 18:56 60.95802 -176.09454 38213 ft 493 kts 233°
2026-05-04 18:57 60.91381 -176.20248 38210 ft 493 kts 232°
2026-05-04 18:57 60.86953 -176.31010 38218 ft 493 kts 232°
2026-05-04 18:58 60.82513 -176.41749 38217 ft 493 kts 232°
2026-05-04 18:58 60.78065 -176.52457 38222 ft 493 kts 232°
2026-05-04 18:59 60.73611 -176.63129 38221 ft 493 kts 232°
2026-05-04 18:59 60.69150 -176.73770 38226 ft 493 kts 232°
2026-05-04 19:00 60.64679 -176.84383 38225 ft 493 kts 232°
2026-05-04 19:00 60.60199 -176.94968 38220 ft 493 kts 232°
2026-05-04 19:01 60.55712 -177.05522 38227 ft 493 kts 232°
2026-05-04 19:01 60.51247 -177.15977 38236 ft 493 kts 232°
2026-05-04 19:02 60.46712 -177.26547 38230 ft 493 kts 232°
2026-05-04 19:02 60.42232 -177.36939 38237 ft 493 kts 231°
2026-05-04 19:03 60.37715 -177.47371 38233 ft 493 kts 231°
2026-05-04 19:03 60.33193 -177.57764 38230 ft 493 kts 231°
2026-05-04 19:04 60.28658 -177.68140 38244 ft 493 kts 231°
2026-05-04 19:04 60.24117 -177.78485 38242 ft 493 kts 231°
2026-05-04 19:05 60.19434 -177.88544 38237 ft 495 kts 224°
2026-05-04 19:05 60.13908 -177.96870 38238 ft 498 kts 217°
2026-05-04 19:06 60.08170 -178.04656 38244 ft 498 kts 216°
2026-05-04 19:06 60.02397 -178.12352 38248 ft 498 kts 216°
2026-05-04 19:07 59.96635 -178.20053 38246 ft 498 kts 217°
2026-05-04 19:07 59.90884 -178.27749 38249 ft 498 kts 217°
2026-05-04 19:08 59.85129 -178.35429 38253 ft 498 kts 216°
2026-05-04 19:08 59.79372 -178.43078 38249 ft 498 kts 216°
2026-05-04 19:09 59.73613 -178.50696 38252 ft 498 kts 216°
2026-05-04 19:09 59.67847 -178.58290 38253 ft 498 kts 216°
2026-05-04 19:10 59.62078 -178.65855 38252 ft 498 kts 216°
2026-05-04 19:10 59.56303 -178.73397 38255 ft 498 kts 216°
2026-05-04 19:11 59.50524 -178.80913 38257 ft 498 kts 216°
2026-05-04 19:11 59.44745 -178.88396 38256 ft 498 kts 216°
2026-05-04 19:12 59.36058 -178.99587 38256 ft 498 kts 216°
2026-05-04 19:13 59.30266 -179.07010 38262 ft 498 kts 216°
2026-05-04 19:13 59.24469 -179.14410 38260 ft 498 kts 216°
2026-05-04 19:14 59.18707 -179.21736 38262 ft 498 kts 216°
2026-05-04 19:14 59.12903 -179.29084 38260 ft 498 kts 216°
2026-05-04 19:15 59.07093 -179.36409 38264 ft 498 kts 216°
2026-05-04 19:15 59.01280 -179.43708 38267 ft 498 kts 216°
2026-05-04 19:16 58.95466 -179.50979 38270 ft 498 kts 216°
2026-05-04 19:16 58.89645 -179.58229 38269 ft 498 kts 216°
2026-05-04 19:17 58.83818 -179.65457 38267 ft 498 kts 215°
2026-05-04 19:17 58.77986 -179.72663 38277 ft 498 kts 215°
2026-05-04 19:18 58.72143 -179.79851 38268 ft 498 kts 215°
2026-05-04 19:18 58.66302 -179.87009 38273 ft 498 kts 215°
2026-05-04 19:19 58.60450 -179.94150 38267 ft 498 kts 215°
2026-05-04 19:19 58.54602 179.98740 38266 ft 498 kts 215°
2026-05-04 19:20 58.48743 179.91647 38272 ft 498 kts 215°
2026-05-04 19:20 58.42883 179.84581 38270 ft 498 kts 215°
2026-05-04 19:21 58.37021 179.77540 38267 ft 498 kts 215°
2026-05-04 19:21 58.31153 179.70520 38268 ft 498 kts 215°
2026-05-04 19:22 58.25281 179.63523 38267 ft 498 kts 215°
2026-05-04 19:22 58.19446 179.56598 38273 ft 498 kts 214°
2026-05-04 19:23 58.13567 179.49648 38270 ft 498 kts 214°
2026-05-04 19:23 58.07687 179.42724 38272 ft 498 kts 214°
2026-05-04 19:24 58.01801 179.35819 38272 ft 498 kts 214°
2026-05-04 19:24 57.95875 179.28896 38272 ft 498 kts 214°
2026-05-04 19:25 57.90016 179.22077 38273 ft 498 kts 214°
2026-05-04 19:25 57.84117 179.15239 38273 ft 498 kts 214°
2026-05-04 19:26 57.78216 179.08424 38276 ft 498 kts 214°
2026-05-04 19:26 57.72306 179.01627 38273 ft 498 kts 214°
2026-05-04 19:27 57.66395 178.94853 38273 ft 499 kts 214°
2026-05-04 19:27 57.60473 178.88094 38273 ft 499 kts 214°
2026-05-04 19:28 57.55552 178.82496 38276 ft 499 kts 214°
2026-05-04 19:28 57.49626 178.75780 38269 ft 499 kts 214°
2026-05-04 19:29 57.43692 178.69082 38273 ft 499 kts 214°
2026-05-04 19:29 57.37755 178.62404 38268 ft 499 kts 214°
2026-05-04 19:30 57.31814 178.55749 38270 ft 499 kts 214°
2026-05-04 19:30 57.25865 178.49108 38271 ft 499 kts 214°
2026-05-04 19:31 57.19916 178.42495 38271 ft 499 kts 214°
2026-05-04 19:31 57.13965 178.35902 38267 ft 499 kts 213°
2026-05-04 19:32 57.08004 178.29325 38265 ft 499 kts 213°
2026-05-04 19:32 57.02042 178.22771 38267 ft 499 kts 213°
2026-05-04 19:33 56.96073 178.16235 38268 ft 500 kts 213°
2026-05-04 19:33 56.90103 178.09722 38265 ft 500 kts 213°
2026-05-04 19:34 56.84123 178.03223 38262 ft 500 kts 213°
2026-05-04 19:34 56.78139 177.96743 38262 ft 500 kts 213°
2026-05-04 19:35 56.72152 177.90285 38262 ft 500 kts 213°
2026-05-04 19:35 56.66156 177.83841 38263 ft 500 kts 213°
2026-05-04 19:36 56.60201 177.77465 38261 ft 501 kts 213°
2026-05-04 19:36 56.54193 177.71055 38260 ft 501 kts 213°
2026-05-04 19:37 56.48182 177.64667 38258 ft 501 kts 213°
2026-05-04 19:37 56.42167 177.58298 38253 ft 501 kts 213°
2026-05-04 19:38 56.36147 177.51947 38255 ft 501 kts 213°
2026-05-04 19:38 56.30123 177.45617 38252 ft 501 kts 213°
2026-05-04 19:39 56.24095 177.39304 38250 ft 501 kts 213°
2026-05-04 19:39 56.18064 177.33011 38253 ft 501 kts 213°
2026-05-04 19:40 56.12026 177.26735 38248 ft 501 kts 213°
2026-05-04 19:40 56.05984 177.20477 38247 ft 501 kts 213°
2026-05-04 19:41 55.99944 177.14245 38244 ft 501 kts 212°
2026-05-04 19:41 55.93900 177.08031 38243 ft 501 kts 212°
2026-05-04 19:42 55.87852 177.01835 38240 ft 501 kts 212°
2026-05-04 19:42 55.81802 176.95660 38237 ft 501 kts 212°
2026-05-04 19:43 55.75749 176.89503 38239 ft 501 kts 212°
2026-05-04 19:43 55.69690 176.83363 38234 ft 501 kts 212°
2026-05-04 19:44 55.63638 176.77252 38230 ft 501 kts 212°
2026-05-04 19:44 55.57572 176.71150 38229 ft 501 kts 212°
2026-05-04 19:45 55.51509 176.65072 38230 ft 501 kts 212°
2026-05-04 19:45 55.45445 176.59014 38231 ft 501 kts 212°
2026-05-04 19:46 55.39379 176.52977 38225 ft 501 kts 212°
2026-05-04 19:46 55.33307 176.46954 38225 ft 501 kts 212°
2026-05-04 19:47 55.27236 176.40953 38225 ft 501 kts 212°
2026-05-04 19:47 55.21202 176.35010 38215 ft 501 kts 212°
2026-05-04 19:48 55.15127 176.29049 38209 ft 501 kts 212°
2026-05-04 19:48 55.09053 176.23109 38220 ft 500 kts 212°
2026-05-04 19:49 55.02971 176.17182 38219 ft 500 kts 212°
2026-05-04 19:49 54.96890 176.11278 38211 ft 500 kts 212°
2026-05-04 19:50 54.90811 176.05395 38214 ft 500 kts 212°
2026-05-04 19:50 54.84727 175.99529 38198 ft 500 kts 212°
2026-05-04 19:51 54.78642 175.93681 38204 ft 500 kts 212°
2026-05-04 19:51 54.72551 175.87848 38201 ft 500 kts 212°
2026-05-04 19:52 54.66460 175.82035 38198 ft 500 kts 212°
2026-05-04 19:52 54.60368 175.76241 38196 ft 500 kts 212°
2026-05-04 19:53 54.54271 175.70462 38193 ft 500 kts 212°
2026-05-04 19:53 54.48170 175.64700 38191 ft 500 kts 212°
2026-05-04 19:54 54.42069 175.58959 38187 ft 500 kts 212°
2026-05-04 19:54 54.35962 175.53231 38185 ft 500 kts 212°
2026-05-04 19:55 54.29848 175.47515 38182 ft 500 kts 212°
2026-05-04 19:55 54.23734 175.41818 38181 ft 501 kts 212°
2026-05-04 19:56 54.17617 175.36138 38178 ft 501 kts 212°
2026-05-04 19:56 54.11533 175.30507 38174 ft 501 kts 212°
2026-05-04 19:57 54.05404 175.24854 38171 ft 501 kts 212°
2026-05-04 19:57 53.99273 175.19218 38168 ft 501 kts 212°
2026-05-04 19:58 53.93138 175.13599 38167 ft 501 kts 212°
2026-05-04 19:58 53.87001 175.07997 38164 ft 501 kts 212°
2026-05-04 19:59 53.80856 175.02407 38160 ft 501 kts 212°
2026-05-04 19:59 53.74713 174.96835 38159 ft 501 kts 212°
2026-05-04 20:00 53.68566 174.91280 38154 ft 501 kts 212°
2026-05-04 20:00 53.62413 174.85737 38155 ft 501 kts 212°
2026-05-04 20:01 53.56254 174.80208 38149 ft 501 kts 212°
2026-05-04 20:01 53.50102 174.74703 38151 ft 501 kts 212°
2026-05-04 20:02 53.43942 174.69209 38143 ft 501 kts 212°
2026-05-04 20:02 53.37786 174.63737 38139 ft 501 kts 212°
2026-05-04 20:03 53.31635 174.58288 38134 ft 500 kts 212°
2026-05-04 20:03 53.25476 174.52848 38135 ft 500 kts 212°
2026-05-04 20:04 53.19323 174.47432 38135 ft 500 kts 212°
2026-05-04 20:04 53.13167 174.42032 38124 ft 500 kts 212°
2026-05-04 20:05 53.07010 174.36647 38130 ft 500 kts 212°
2026-05-04 20:05 53.00855 174.31282 38125 ft 499 kts 212°
2026-05-04 20:06 52.94698 174.25932 38121 ft 500 kts 213°
2026-05-04 20:06 52.88539 174.20599 38124 ft 500 kts 213°
2026-05-04 20:07 52.82374 174.15277 38109 ft 500 kts 213°
2026-05-04 20:07 52.76207 174.09964 38101 ft 499 kts 213°
2026-05-04 20:08 52.70646 174.03415 38108 ft 485 kts 230°
2026-05-04 20:08 52.66178 173.95192 38109 ft 480 kts 236°
2026-05-04 20:09 52.61941 173.86690 38121 ft 480 kts 237°
2026-05-04 20:09 52.57719 173.78189 38117 ft 480 kts 236°
2026-05-04 20:10 52.53493 173.69791 38121 ft 480 kts 236°
2026-05-04 20:10 52.49190 173.61316 38120 ft 480 kts 236°
2026-05-04 20:11 52.44935 173.52976 38113 ft 480 kts 236°
2026-05-04 20:11 52.40649 173.44598 38110 ft 480 kts 236°
2026-05-04 20:12 52.37057 173.37597 38107 ft 479 kts 236°
2026-05-04 20:12 52.32069 173.27905 38105 ft 479 kts 236°
2026-05-04 20:13 52.27776 173.19595 38104 ft 478 kts 237°
2026-05-04 20:13 52.23484 173.11314 38109 ft 477 kts 237°
2026-05-04 20:14 52.19888 173.04396 38096 ft 477 kts 237°
2026-05-04 20:14 52.15601 172.96173 38091 ft 476 kts 237°
2026-05-04 20:15 52.11313 172.87976 38092 ft 475 kts 237°
2026-05-04 20:15 52.07030 172.79814 38089 ft 474 kts 237°
2026-05-04 20:16 52.02775 172.71734 38083 ft 473 kts 237°
2026-05-04 20:16 51.98500 172.63640 38085 ft 472 kts 237°
2026-05-04 20:17 51.94229 172.55579 38087 ft 471 kts 238°
2026-05-04 20:17 51.89932 172.47495 38075 ft 470 kts 238°
2026-05-04 20:18 51.85697 172.39554 38077 ft 469 kts 238°
2026-05-04 20:18 51.81440 172.31596 38073 ft 467 kts 238°
2026-05-04 20:19 51.77185 172.23667 38073 ft 466 kts 239°
2026-05-04 20:19 51.72935 172.15772 38068 ft 465 kts 239°
2026-05-04 20:20 51.68692 172.07913 38071 ft 464 kts 239°
2026-05-04 20:20 51.64455 172.00089 38064 ft 463 kts 239°
2026-05-04 20:21 51.60218 171.92288 38063 ft 462 kts 239°
2026-05-04 20:21 51.53872 171.80652 38060 ft 461 kts 240°
2026-05-04 20:22 51.49645 171.72935 38076 ft 459 kts 240°
2026-05-04 20:22 51.45424 171.65252 38059 ft 458 kts 240°
2026-05-04 20:23 51.41323 171.57503 38058 ft 448 kts 246°
2026-05-04 20:23 51.39683 171.53352 38059 ft 436 kts 253°
2026-05-04 20:23 51.38396 171.49017 38053 ft 428 kts 257°
2026-05-04 20:24 51.36137 171.40255 38052 ft 424 kts 259°
2026-05-04 20:24 51.33982 171.31487 38054 ft 423 kts 259°
2026-05-04 20:25 51.31819 171.22767 38052 ft 422 kts 259°
2026-05-04 20:25 51.29632 171.14082 38052 ft 420 kts 259°
2026-05-04 20:26 51.27453 171.05496 38046 ft 419 kts 259°
2026-05-04 20:26 51.25247 170.96843 38046 ft 418 kts 259°
2026-05-04 20:27 51.23068 170.88325 38052 ft 416 kts 258°
2026-05-04 20:27 51.20879 170.79789 38041 ft 415 kts 258°
2026-05-04 20:28 51.18689 170.71287 38047 ft 414 kts 258°
2026-05-04 20:28 51.16498 170.62815 38052 ft 413 kts 258°
2026-05-04 20:29 51.14307 170.54373 38044 ft 412 kts 258°
2026-05-04 20:29 51.12116 170.45964 38043 ft 411 kts 258°
2026-05-04 20:30 51.09924 170.37580 38044 ft 410 kts 258°
2026-05-04 20:30 51.07732 170.29228 38044 ft 409 kts 258°
2026-05-04 20:31 51.05537 170.20891 38044 ft 408 kts 258°
2026-05-04 20:31 51.03340 170.12581 38041 ft 407 kts 257°
2026-05-04 20:32 51.01128 170.04304 38039 ft 409 kts 256°
2026-05-04 20:32 50.98142 169.96425 38041 ft 426 kts 245°
2026-05-04 20:33 50.94454 169.89017 38041 ft 429 kts 243°
2026-05-04 20:33 50.90651 169.81732 38037 ft 429 kts 243°
2026-05-04 20:34 50.86856 169.74470 38038 ft 427 kts 243°
2026-05-04 20:34 50.83084 169.67217 38033 ft 426 kts 243°
2026-05-04 20:35 50.79332 169.59997 38035 ft 424 kts 243°
2026-05-04 20:35 50.75589 169.52812 38031 ft 423 kts 243°
2026-05-04 20:36 50.71857 169.45670 38029 ft 420 kts 243°
2026-05-04 20:36 50.68140 169.38581 38027 ft 418 kts 243°
2026-05-04 20:37 50.64445 169.31549 38027 ft 415 kts 243°
2026-05-04 20:37 50.60799 169.24628 38026 ft 412 kts 243°
2026-05-04 20:38 50.57119 169.17664 38021 ft 410 kts 243°
2026-05-04 20:38 50.53509 169.10849 38022 ft 407 kts 243°
2026-05-04 20:39 50.49894 169.04041 38025 ft 405 kts 243°
2026-05-04 20:39 50.46875 168.98368 38019 ft 403 kts 243°
2026-05-04 20:40 50.42702 168.90547 38017 ft 401 kts 243°
2026-05-04 20:40 50.39095 168.83807 38020 ft 400 kts 243°
2026-05-04 20:41 50.35547 168.77196 38013 ft 398 kts 243°
2026-05-04 20:41 50.31983 168.70571 38009 ft 397 kts 243°
2026-05-04 20:42 50.28427 168.63979 38013 ft 396 kts 243°
2026-05-04 20:42 50.24878 168.57417 38010 ft 394 kts 242°
2026-05-04 20:43 50.21338 168.50887 38010 ft 393 kts 242°
2026-05-04 20:43 50.17811 168.44396 38006 ft 392 kts 242°
2026-05-04 20:44 50.14292 168.37937 38006 ft 390 kts 242°
2026-05-04 20:44 50.10779 168.31507 38005 ft 389 kts 242°
2026-05-04 20:45 50.07272 168.25104 38000 ft 388 kts 242°
2026-05-04 20:45 50.03776 168.18733 38002 ft 387 kts 242°
2026-05-04 20:46 50.00281 168.12381 38000 ft 386 kts 242°
2026-05-04 20:46 49.96791 168.06055 37998 ft 385 kts 242°
2026-05-04 20:47 49.93303 167.99747 37991 ft 384 kts 242°
2026-05-04 20:47 49.89821 167.93463 37990 ft 384 kts 242°
2026-05-04 20:48 49.86338 167.87194 37988 ft 383 kts 242°
2026-05-04 20:48 49.82861 167.80950 37985 ft 382 kts 241°
2026-05-04 20:49 49.79384 167.74723 37987 ft 382 kts 241°
2026-05-04 20:49 49.75914 167.68523 37985 ft 381 kts 241°
2026-05-04 20:50 49.72443 167.62337 37983 ft 381 kts 241°
2026-05-04 20:50 49.68972 167.56162 37983 ft 380 kts 241°
2026-05-04 20:51 49.65501 167.50004 37980 ft 380 kts 241°
2026-05-04 20:51 49.62030 167.43862 37976 ft 380 kts 240°
2026-05-04 20:52 49.58559 167.37732 37971 ft 379 kts 240°
2026-05-04 20:52 49.55086 167.31613 37972 ft 379 kts 240°
2026-05-04 20:53 49.51634 167.25547 37977 ft 379 kts 240°
2026-05-04 20:53 49.48157 167.19451 37974 ft 379 kts 240°
2026-05-04 20:54 49.44678 167.13364 37972 ft 379 kts 240°
2026-05-04 20:54 49.41197 167.07291 37973 ft 379 kts 240°
2026-05-04 20:55 49.37712 167.01223 37978 ft 379 kts 240°
2026-05-04 20:55 49.34228 166.95170 37974 ft 378 kts 240°
2026-05-04 20:56 49.30742 166.89129 37972 ft 378 kts 239°
2026-05-04 20:56 49.27254 166.83098 37971 ft 378 kts 239°
2026-05-04 20:57 49.24353 166.78093 37974 ft 378 kts 239°
2026-05-04 20:57 49.20278 166.71080 37969 ft 377 kts 239°
2026-05-04 20:58 49.16789 166.65088 37966 ft 377 kts 239°
2026-05-04 20:58 49.13301 166.59113 37965 ft 377 kts 239°
2026-05-04 20:59 49.09808 166.53141 37962 ft 377 kts 239°
2026-05-04 20:59 49.06900 166.48180 37958 ft 377 kts 239°
2026-05-04 21:00 49.02832 166.41257 37950 ft 377 kts 238°
2026-05-04 21:00 48.99896 166.36272 37947 ft 377 kts 238°
2026-05-04 21:01 48.96388 166.30330 37947 ft 377 kts 238°
2026-05-04 21:01 48.92880 166.24398 37947 ft 377 kts 238°
2026-05-04 21:02 48.89365 166.18469 37944 ft 378 kts 238°
2026-05-04 21:02 48.85841 166.12538 37932 ft 378 kts 238°
2026-05-04 21:03 48.82314 166.06617 37933 ft 378 kts 238°
2026-05-04 21:03 48.78783 166.00702 37935 ft 378 kts 238°
2026-05-04 21:04 48.75248 165.94794 37926 ft 378 kts 237°
2026-05-04 21:04 48.71737 165.88939 37921 ft 378 kts 237°
2026-05-04 21:05 48.68200 165.83053 37928 ft 378 kts 237°
2026-05-04 21:05 48.64655 165.77169 37922 ft 378 kts 237°
2026-05-04 21:06 48.61110 165.71295 37920 ft 378 kts 237°
2026-05-04 21:06 48.57561 165.65430 37916 ft 379 kts 237°
2026-05-04 21:07 48.54000 165.59558 37919 ft 379 kts 237°
2026-05-04 21:07 48.50442 165.53704 37913 ft 379 kts 236°
2026-05-04 21:08 48.46881 165.47858 37912 ft 379 kts 236°
2026-05-04 21:08 48.43318 165.42022 37907 ft 379 kts 236°
2026-05-04 21:09 48.39746 165.36184 37907 ft 379 kts 236°
2026-05-04 21:09 48.36167 165.30347 37902 ft 379 kts 236°
2026-05-04 21:10 48.32585 165.24518 37907 ft 380 kts 236°
2026-05-04 21:10 48.28993 165.18688 37898 ft 380 kts 236°
2026-05-04 21:11 48.25398 165.12864 37895 ft 381 kts 236°
2026-05-04 21:11 48.21797 165.07043 37891 ft 381 kts 235°
2026-05-04 21:12 48.18188 165.01223 37897 ft 381 kts 235°
2026-05-04 21:12 48.14572 164.95404 37887 ft 382 kts 235°
2026-05-04 21:13 48.10950 164.89589 37884 ft 382 kts 235°
2026-05-04 21:13 48.07314 164.83764 37882 ft 383 kts 235°
2026-05-04 21:14 48.03671 164.77942 37877 ft 384 kts 234°
2026-05-04 21:14 48.00020 164.72121 37870 ft 384 kts 234°
2026-05-04 21:15 47.96357 164.66291 37869 ft 385 kts 234°
2026-05-04 21:15 47.92683 164.60459 37867 ft 386 kts 234°
2026-05-04 21:16 47.89003 164.54628 37864 ft 386 kts 234°
2026-05-04 21:16 47.85342 164.48840 37859 ft 387 kts 234°
2026-05-04 21:17 47.81648 164.43015 37858 ft 387 kts 234°
2026-05-04 21:17 47.77950 164.37196 37848 ft 387 kts 234°
2026-05-04 21:18 47.74250 164.31386 37843 ft 387 kts 234°
2026-05-04 21:18 47.70537 164.25569 37842 ft 388 kts 234°
2026-05-04 21:19 47.66822 164.19762 37841 ft 388 kts 233°
2026-05-04 21:19 47.63103 164.13959 37828 ft 388 kts 233°
2026-05-04 21:20 47.59376 164.08160 37829 ft 388 kts 233°
2026-05-04 21:20 47.55646 164.02368 37824 ft 389 kts 233°
2026-05-04 21:21 47.51914 163.96584 37820 ft 389 kts 233°
2026-05-04 21:21 47.48175 163.90803 37812 ft 389 kts 233°
2026-05-04 21:22 47.44431 163.85027 37814 ft 389 kts 233°
2026-05-04 21:22 47.40680 163.79252 37802 ft 390 kts 233°
2026-05-04 21:23 47.36922 163.73480 37799 ft 390 kts 233°
2026-05-04 21:23 47.33159 163.67712 37791 ft 390 kts 232°
2026-05-04 21:24 47.29389 163.61947 37789 ft 391 kts 232°
2026-05-04 21:24 47.25610 163.56181 37779 ft 391 kts 232°
2026-05-04 21:25 47.21828 163.50423 37788 ft 392 kts 232°
2026-05-04 21:25 47.18034 163.44659 37774 ft 392 kts 232°
2026-05-04 21:26 47.14236 163.38902 37767 ft 392 kts 232°
2026-05-04 21:26 47.10430 163.33146 37766 ft 393 kts 232°
2026-05-04 21:27 47.06623 163.27398 37759 ft 393 kts 232°
2026-05-04 21:27 47.02806 163.21651 37751 ft 393 kts 232°
2026-05-04 21:28 46.98987 163.15912 37744 ft 393 kts 232°
2026-05-04 21:28 46.95189 163.10216 37741 ft 393 kts 232°
2026-05-04 21:29 46.91363 163.04491 37738 ft 393 kts 231°
2026-05-04 21:29 46.87534 162.98775 37729 ft 394 kts 231°
2026-05-04 21:30 46.83699 162.93063 37728 ft 394 kts 231°
2026-05-04 21:30 46.79863 162.87361 37724 ft 394 kts 231°
2026-05-04 21:31 46.74106 162.78826 37712 ft 393 kts 231°
2026-05-04 21:32 46.70265 162.73148 37704 ft 393 kts 231°
2026-05-04 21:32 46.66418 162.67473 37698 ft 393 kts 231°
2026-05-04 21:33 46.62574 162.61814 37695 ft 393 kts 231°
2026-05-04 21:33 46.58728 162.56164 37692 ft 393 kts 231°
2026-05-04 21:34 46.54903 162.50557 37686 ft 393 kts 230°
2026-05-04 21:34 46.51025 162.44884 37678 ft 393 kts 230°
2026-05-04 21:35 46.47199 162.39300 37674 ft 393 kts 230°
2026-05-04 21:35 46.43343 162.33678 37664 ft 393 kts 230°
2026-05-04 21:36 46.39938 162.27571 37660 ft 388 kts 238°
2026-05-04 21:36 46.36906 162.21116 37661 ft 388 kts 239°
2026-05-04 21:37 46.33928 162.14609 37651 ft 388 kts 239°
2026-05-04 21:37 46.30946 162.08114 37643 ft 388 kts 239°
2026-05-04 21:38 46.27946 162.01627 37638 ft 388 kts 239°
2026-05-04 21:38 46.24940 161.95155 37630 ft 388 kts 238°
2026-05-04 21:39 46.21931 161.88694 37631 ft 388 kts 238°
2026-05-04 21:39 46.18919 161.82238 37620 ft 388 kts 238°
2026-05-04 21:40 46.15901 161.75787 37618 ft 388 kts 238°
2026-05-04 21:40 46.12884 161.69349 37607 ft 388 kts 238°
2026-05-04 21:41 46.09862 161.62917 37602 ft 387 kts 238°
2026-05-04 21:41 46.06840 161.56499 37600 ft 387 kts 238°
2026-05-04 21:42 46.03813 161.50086 37599 ft 387 kts 238°
2026-05-04 21:42 46.00788 161.43690 37597 ft 387 kts 238°
2026-05-04 21:43 45.97757 161.37297 37641 ft 387 kts 238°
2026-05-04 21:43 45.96238 161.34098 37846 ft 387 kts 238°
2026-05-04 21:43 45.94725 161.30917 38096 ft 385 kts 238°
2026-05-04 21:43 45.93213 161.27740 38307 ft 384 kts 238°
2026-05-04 21:44 45.91703 161.24573 38466 ft 384 kts 238°
2026-05-04 21:44 45.90196 161.21413 38601 ft 384 kts 238°
2026-05-04 21:44 45.88681 161.18241 38729 ft 385 kts 238°
2026-05-04 21:44 45.87170 161.15079 38864 ft 385 kts 238°
2026-05-04 21:45 45.85653 161.11911 38993 ft 385 kts 238°
2026-05-04 21:45 45.84139 161.08750 39123 ft 385 kts 238°
2026-05-04 21:45 45.82620 161.05585 39251 ft 385 kts 238°
2026-05-04 21:45 45.81103 161.02425 39368 ft 385 kts 238°
2026-05-04 21:46 45.79583 160.99264 39493 ft 385 kts 238°
2026-05-04 21:46 45.77048 160.94000 39575 ft 386 kts 238°
2026-05-04 21:47 45.74003 160.87688 39566 ft 385 kts 238°
2026-05-04 21:47 45.70952 160.81380 39569 ft 385 kts 237°
2026-05-04 21:48 45.67901 160.75086 39548 ft 385 kts 237°
2026-05-04 21:48 45.64847 160.68799 39545 ft 385 kts 237°
2026-05-04 21:49 45.61790 160.62519 39560 ft 385 kts 237°
2026-05-04 21:49 45.58733 160.56252 39555 ft 385 kts 237°
2026-05-04 21:50 45.55672 160.49993 39555 ft 384 kts 237°
2026-05-04 21:50 45.52633 160.43791 39540 ft 384 kts 237°
2026-05-04 21:51 45.49567 160.37549 39556 ft 384 kts 237°
2026-05-04 21:51 45.46504 160.31326 39532 ft 384 kts 237°
2026-05-04 21:52 45.43437 160.25109 39548 ft 383 kts 237°
2026-05-04 21:52 45.40368 160.18902 39532 ft 383 kts 237°
2026-05-04 21:53 45.37297 160.12704 39549 ft 383 kts 237°
2026-05-04 21:53 45.34222 160.06509 39534 ft 383 kts 237°
2026-05-04 21:54 45.31146 160.00329 39549 ft 383 kts 236°
2026-05-04 21:54 45.28068 159.94157 39533 ft 383 kts 236°
2026-05-04 21:55 45.24986 159.87991 39537 ft 383 kts 236°
2026-05-04 21:55 45.21906 159.81841 39554 ft 382 kts 236°
2026-05-04 21:56 45.18821 159.75695 39542 ft 382 kts 236°
2026-05-04 21:56 45.15733 159.69555 39543 ft 382 kts 236°
2026-05-04 21:57 45.12643 159.63426 39543 ft 382 kts 236°
2026-05-04 21:57 45.09552 159.57308 39542 ft 382 kts 236°
2026-05-04 21:58 45.06457 159.51194 39542 ft 382 kts 236°
2026-05-04 21:58 45.03360 159.45090 39543 ft 382 kts 236°
2026-05-04 21:59 45.00262 159.38998 39544 ft 382 kts 236°
2026-05-04 21:59 44.97160 159.32909 39544 ft 382 kts 236°
2026-05-04 22:00 44.94055 159.26828 39546 ft 381 kts 236°
2026-05-04 22:00 44.90953 159.20765 39549 ft 381 kts 235°
2026-05-04 22:01 44.87841 159.14707 39545 ft 381 kts 235°
2026-05-04 22:01 44.84736 159.08666 39559 ft 381 kts 235°
2026-05-04 22:02 44.81651 159.02667 39549 ft 380 kts 235°
2026-05-04 22:02 44.78538 158.96631 39550 ft 381 kts 235°
2026-05-04 22:03 44.75424 158.90607 39547 ft 381 kts 236°
2026-05-04 22:03 44.72303 158.84585 39548 ft 381 kts 235°
2026-05-04 22:04 44.69180 158.78570 39550 ft 381 kts 236°
2026-05-04 22:04 44.66055 158.72564 39547 ft 381 kts 235°
2026-05-04 22:05 44.62923 158.66560 39548 ft 381 kts 236°
2026-05-04 22:05 44.59791 158.60565 39554 ft 381 kts 236°
2026-05-04 22:06 44.56651 158.54568 39559 ft 381 kts 236°
2026-05-04 22:06 44.53511 158.48584 39553 ft 381 kts 236°
2026-05-04 22:07 44.50367 158.42604 39563 ft 381 kts 236°
2026-05-04 22:07 44.47220 158.36630 39561 ft 381 kts 236°
2026-05-04 22:08 44.44071 158.30666 39565 ft 381 kts 236°
2026-05-04 22:08 44.40915 158.24701 39562 ft 381 kts 236°
2026-05-04 22:09 44.37759 158.18748 39567 ft 381 kts 236°
2026-05-04 22:09 44.34598 158.12798 39572 ft 381 kts 236°
2026-05-04 22:10 44.31435 158.06856 39566 ft 381 kts 236°
2026-05-04 22:10 44.28267 158.00915 39575 ft 381 kts 236°
2026-05-04 22:11 44.25093 157.94978 39576 ft 382 kts 236°
2026-05-04 22:11 44.21918 157.89050 39573 ft 382 kts 236°
2026-05-04 22:12 44.18736 157.83121 39575 ft 382 kts 236°
2026-05-04 22:12 44.15574 157.77241 39576 ft 382 kts 236°
2026-05-04 22:13 44.12385 157.71325 39578 ft 382 kts 236°
2026-05-04 22:13 44.09191 157.65409 39575 ft 382 kts 236°
2026-05-04 22:14 44.05995 157.59504 39576 ft 382 kts 236°
2026-05-04 22:14 44.02796 157.53602 39574 ft 382 kts 236°
2026-05-04 22:15 43.99594 157.47709 39577 ft 382 kts 236°
2026-05-04 22:15 43.96385 157.41813 39579 ft 382 kts 236°
2026-05-04 22:16 43.93175 157.35930 39586 ft 383 kts 236°
2026-05-04 22:16 43.89960 157.30048 39582 ft 383 kts 236°
2026-05-04 22:17 43.86742 157.24172 39583 ft 383 kts 236°
2026-05-04 22:17 43.83520 157.18302 39585 ft 383 kts 236°
2026-05-04 22:18 43.80296 157.12439 39595 ft 383 kts 236°
2026-05-04 22:18 43.77065 157.06576 39588 ft 383 kts 236°
2026-05-04 22:19 43.73834 157.00723 39592 ft 383 kts 236°
2026-05-04 22:19 43.70600 156.94877 39597 ft 383 kts 236°
2026-05-04 22:20 43.67357 156.89028 39599 ft 383 kts 236°
2026-05-04 22:20 43.64112 156.83184 39595 ft 383 kts 236°
2026-05-04 22:21 43.60862 156.77345 39599 ft 384 kts 236°
2026-05-04 22:21 43.57606 156.71507 39598 ft 384 kts 236°
2026-05-04 22:22 43.54349 156.65679 39603 ft 384 kts 236°
2026-05-04 22:22 43.51107 156.59888 39601 ft 384 kts 236°
2026-05-04 22:23 43.47838 156.54062 39603 ft 384 kts 236°
2026-05-04 22:23 43.44566 156.48241 39604 ft 384 kts 236°
2026-05-04 22:24 43.41290 156.42424 39606 ft 385 kts 236°
2026-05-04 22:24 43.38013 156.36616 39605 ft 384 kts 236°
2026-05-04 22:25 43.34730 156.30811 39610 ft 384 kts 236°
2026-05-04 22:25 43.31448 156.25019 39614 ft 384 kts 236°
2026-05-04 22:26 43.28166 156.19237 39611 ft 384 kts 236°
2026-05-04 22:26 43.24882 156.13465 39613 ft 383 kts 236°
2026-05-04 22:27 43.21599 156.07704 39614 ft 383 kts 236°
2026-05-04 22:27 43.18312 156.01946 39617 ft 383 kts 236°
2026-05-04 22:28 43.15023 155.96199 39618 ft 383 kts 236°
2026-05-04 22:28 43.11731 155.90457 39614 ft 383 kts 236°
2026-05-04 22:29 43.08439 155.84726 39620 ft 383 kts 236°
2026-05-04 22:29 43.05142 155.78996 39622 ft 383 kts 236°
2026-05-04 22:30 43.01842 155.73274 39622 ft 383 kts 236°
2026-05-04 22:30 42.98538 155.67556 39624 ft 383 kts 236°
2026-05-04 22:31 42.95209 155.61872 39624 ft 384 kts 236°
2026-05-04 22:31 42.91858 155.56263 39622 ft 384 kts 236°
2026-05-04 22:32 42.88478 155.50618 39625 ft 384 kts 236°
2026-05-04 22:32 42.85105 155.44975 39627 ft 384 kts 236°
2026-05-04 22:33 42.81729 155.39331 39628 ft 384 kts 236°
2026-05-04 22:33 42.78350 155.33691 39628 ft 384 kts 236°
2026-05-04 22:34 42.74967 155.28056 39632 ft 385 kts 236°
2026-05-04 22:34 42.71575 155.22418 39633 ft 385 kts 236°
2026-05-04 22:35 42.68732 155.17700 39635 ft 385 kts 236°
2026-05-04 22:35 42.65353 155.12102 39636 ft 386 kts 236°
2026-05-04 22:36 42.61947 155.06472 39635 ft 386 kts 236°
2026-05-04 22:36 42.58531 155.00835 39636 ft 387 kts 236°
2026-05-04 22:37 42.55112 154.95203 39651 ft 387 kts 236°
2026-05-04 22:37 42.51681 154.89562 39632 ft 388 kts 236°
2026-05-04 22:38 42.48246 154.83927 39646 ft 388 kts 236°
2026-05-04 22:38 42.44802 154.78287 39643 ft 389 kts 236°
2026-05-04 22:39 42.41380 154.72654 39672 ft 383 kts 230°
2026-05-04 22:39 42.38047 154.67213 39653 ft 371 kts 230°
2026-05-04 22:40 42.34746 154.61864 39656 ft 370 kts 230°
2026-05-04 22:40 42.31453 154.56523 39658 ft 370 kts 230°
2026-05-04 22:41 42.28159 154.51180 39659 ft 370 kts 230°
2026-05-04 22:41 42.24867 154.45847 39664 ft 370 kts 230°
2026-05-04 22:42 42.21577 154.40526 39664 ft 369 kts 230°
2026-05-04 22:42 42.18281 154.35207 39665 ft 369 kts 230°
2026-05-04 22:43 42.14983 154.29894 39667 ft 369 kts 230°
2026-05-04 22:43 42.11688 154.24594 39670 ft 369 kts 230°
2026-05-04 22:44 42.08392 154.19301 39671 ft 369 kts 230°
2026-05-04 22:44 42.05117 154.14052 39673 ft 368 kts 230°
2026-05-04 22:45 42.01823 154.08782 39678 ft 368 kts 230°
2026-05-04 22:45 41.96873 154.00884 39681 ft 368 kts 230°
2026-05-04 22:46 41.93572 153.95626 39682 ft 368 kts 230°
2026-05-04 22:46 41.90271 153.90379 39684 ft 368 kts 230°
2026-05-04 22:47 41.86970 153.85140 39684 ft 368 kts 230°
2026-05-04 22:47 41.83665 153.79904 39690 ft 368 kts 230°
2026-05-04 22:48 41.80361 153.74678 39689 ft 368 kts 230°
2026-05-04 22:48 41.77050 153.69451 39694 ft 368 kts 230°
2026-05-04 22:49 41.73739 153.64234 39694 ft 368 kts 229°
2026-05-04 22:49 41.70425 153.59020 39698 ft 368 kts 229°
2026-05-04 22:50 41.67110 153.53814 39699 ft 368 kts 229°
2026-05-04 22:50 41.63792 153.48612 39705 ft 368 kts 229°
2026-05-04 22:51 41.60472 153.43415 39705 ft 368 kts 229°
2026-05-04 22:51 41.57150 153.38225 39709 ft 368 kts 229°
2026-05-04 22:52 41.53824 153.33039 39709 ft 368 kts 229°
2026-05-04 22:52 41.50497 153.27859 39714 ft 368 kts 229°
2026-05-04 22:53 41.47168 153.22684 39713 ft 368 kts 229°
2026-05-04 22:53 41.43835 153.17513 39717 ft 368 kts 229°
2026-05-04 22:54 41.40500 153.12348 39720 ft 368 kts 229°
2026-05-04 22:54 41.37164 153.07189 39723 ft 367 kts 229°
2026-05-04 22:55 41.33850 153.02074 39723 ft 367 kts 229°
2026-05-04 22:55 41.30510 152.96926 39728 ft 367 kts 229°
2026-05-04 22:56 41.27173 152.91793 39726 ft 367 kts 229°
2026-05-04 22:56 41.23831 152.86661 39731 ft 367 kts 229°
2026-05-04 22:57 41.20491 152.81540 39733 ft 367 kts 229°
2026-05-04 22:57 41.17147 152.76421 39736 ft 367 kts 229°
2026-05-04 22:58 41.13801 152.71309 39741 ft 367 kts 229°
2026-05-04 22:58 41.10451 152.66199 39741 ft 367 kts 229°
2026-05-04 22:59 41.07101 152.61097 39745 ft 367 kts 229°
2026-05-04 22:59 41.03746 152.55998 39748 ft 367 kts 229°
2026-05-04 23:00 41.00390 152.50904 39748 ft 367 kts 229°
2026-05-04 23:00 40.97032 152.45816 39749 ft 367 kts 229°
2026-05-04 23:01 40.93670 152.40730 39753 ft 367 kts 229°
2026-05-04 23:01 40.90306 152.35652 39763 ft 367 kts 229°
2026-05-04 23:02 40.86936 152.30572 39757 ft 367 kts 229°
2026-05-04 23:02 40.83564 152.25497 39768 ft 368 kts 229°
2026-05-04 23:03 40.80189 152.20426 39766 ft 368 kts 229°
2026-05-04 23:03 40.76810 152.15359 39769 ft 368 kts 229°
2026-05-04 23:04 40.73450 152.10326 39770 ft 368 kts 229°
2026-05-04 23:04 40.70045 152.05237 39771 ft 368 kts 229°
2026-05-04 23:05 40.66681 152.00216 39777 ft 368 kts 229°
2026-05-04 23:05 40.63293 151.95169 39776 ft 368 kts 229°
2026-05-04 23:06 40.59903 151.90127 39785 ft 368 kts 229°
2026-05-04 23:06 40.56512 151.85091 39787 ft 368 kts 229°
2026-05-04 23:07 40.53118 151.80059 39785 ft 368 kts 229°
2026-05-04 23:07 40.49721 151.75032 39793 ft 368 kts 229°
2026-05-04 23:08 40.46323 151.70010 39794 ft 368 kts 229°
2026-05-04 23:08 40.42921 151.64992 39796 ft 368 kts 229°
2026-05-04 23:09 40.39517 151.59978 39800 ft 368 kts 229°
2026-05-04 23:09 40.36110 151.54969 39803 ft 368 kts 229°
2026-05-04 23:10 40.32700 151.49964 39804 ft 368 kts 229°
2026-05-04 23:10 40.29287 151.44962 39808 ft 368 kts 229°
2026-05-04 23:11 40.25874 151.39969 39812 ft 368 kts 229°
2026-05-04 23:11 40.22454 151.34973 39815 ft 368 kts 229°
2026-05-04 23:12 40.19058 151.30020 39810 ft 368 kts 229°
2026-05-04 23:12 40.15639 151.25043 39818 ft 368 kts 229°
2026-05-04 23:13 40.12212 151.20061 39817 ft 368 kts 229°
2026-05-04 23:13 40.08787 151.15090 39829 ft 368 kts 229°
2026-05-04 23:14 40.05355 151.10118 39833 ft 368 kts 229°
2026-05-04 23:14 40.01922 151.05153 39832 ft 369 kts 229°
2026-05-04 23:15 39.98485 151.00188 39832 ft 369 kts 229°
2026-05-04 23:15 39.95048 150.95232 39841 ft 369 kts 229°
2026-05-04 23:16 39.91607 150.90279 39836 ft 369 kts 229°
2026-05-04 23:16 39.88160 150.85326 39846 ft 369 kts 228°
2026-05-04 23:17 39.84712 150.80379 39840 ft 369 kts 228°
2026-05-04 23:17 39.81259 150.75433 39844 ft 369 kts 228°
2026-05-04 23:18 39.77806 150.70493 39846 ft 369 kts 228°
2026-05-04 23:18 39.74346 150.65553 39851 ft 370 kts 228°
2026-05-04 23:19 39.70905 150.60647 39852 ft 370 kts 228°
2026-05-04 23:19 39.67436 150.55710 39856 ft 370 kts 228°
2026-05-04 23:20 39.63965 150.50778 39860 ft 370 kts 228°
2026-05-04 23:20 39.60488 150.45845 39861 ft 370 kts 228°
2026-05-04 23:21 39.57010 150.40918 39863 ft 371 kts 228°
2026-05-04 23:21 39.53525 150.35988 39867 ft 371 kts 228°
2026-05-04 23:22 39.50036 150.31062 39866 ft 371 kts 228°
2026-05-04 23:22 39.46542 150.26137 39874 ft 371 kts 228°
2026-05-04 23:23 39.43046 150.21217 39873 ft 372 kts 228°
2026-05-04 23:23 39.39546 150.16298 39875 ft 372 kts 228°
2026-05-04 23:24 39.36633 150.12212 39878 ft 372 kts 228°
2026-05-04 23:24 39.33129 150.07301 39880 ft 372 kts 228°
2026-05-04 23:25 39.29618 150.02390 39889 ft 372 kts 228°
2026-05-04 23:25 39.26105 149.97483 39891 ft 372 kts 228°
2026-05-04 23:26 39.22590 149.92581 39890 ft 372 kts 228°
2026-05-04 23:26 39.19068 149.87679 39891 ft 372 kts 228°
2026-05-04 23:27 39.15667 149.82653 39894 ft 372 kts 233°
2026-05-04 23:27 39.12906 149.77006 39899 ft 373 kts 238°
2026-05-04 23:28 39.10335 149.71209 39918 ft 373 kts 238°
2026-05-04 23:28 39.07784 149.65384 39902 ft 373 kts 238°
2026-05-04 23:29 39.05226 149.59580 39908 ft 373 kts 238°
2026-05-04 23:29 39.02795 149.54101 39910 ft 373 kts 238°
2026-05-04 23:30 39.00368 149.48646 39933 ft 373 kts 238°
2026-05-04 23:30 38.97805 149.42898 39920 ft 373 kts 238°
2026-05-04 23:31 38.95225 149.37119 39923 ft 373 kts 238°
2026-05-04 23:31 38.92642 149.31345 39927 ft 373 kts 238°
2026-05-04 23:32 38.90055 149.25571 39934 ft 373 kts 238°
2026-05-04 23:32 38.87467 149.19806 39933 ft 373 kts 238°
2026-05-04 23:33 38.84877 149.14045 39943 ft 373 kts 238°
2026-05-04 23:33 38.82284 149.08292 39941 ft 372 kts 238°
2026-05-04 23:34 38.79688 149.02540 39948 ft 372 kts 239°
2026-05-04 23:34 38.77092 148.96798 39950 ft 372 kts 239°
2026-05-04 23:35 38.74495 148.91066 39956 ft 372 kts 239°
2026-05-04 23:35 38.71893 148.85333 39960 ft 372 kts 239°
2026-05-04 23:36 38.69291 148.79609 39960 ft 372 kts 239°
2026-05-04 23:36 38.66704 148.73928 39964 ft 372 kts 239°
2026-05-04 23:37 38.64097 148.68216 39966 ft 372 kts 239°
2026-05-04 23:37 38.61488 148.62506 39973 ft 372 kts 239°
2026-05-04 23:38 38.58878 148.56807 39972 ft 372 kts 239°
2026-05-04 23:38 38.56264 148.51108 39979 ft 371 kts 239°
2026-05-04 23:39 38.53649 148.45419 39981 ft 371 kts 239°
2026-05-04 23:39 38.51033 148.39735 39980 ft 371 kts 239°
2026-05-04 23:40 38.48412 148.34053 39983 ft 371 kts 239°
2026-05-04 23:40 38.47105 148.31221 39822 ft 367 kts 239°
2026-05-04 23:40 38.45812 148.28422 39284 ft 366 kts 239°
2026-05-04 23:41 38.44519 148.25627 38722 ft 366 kts 239°
2026-05-04 23:41 38.41014 148.18062 37988 ft 366 kts 238°
2026-05-04 23:41 38.30625 147.95745 37999 ft 366 kts 238°
2026-05-04 23:42 38.20166 147.73434 38012 ft 374 kts 238°
2026-05-04 23:42 38.09296 147.50404 38030 ft 380 kts 238°
2026-05-04 23:43 37.98378 147.27439 38041 ft 380 kts 238°
2026-05-04 23:43 37.88631 147.07073 38052 ft 380 kts 238°
2026-05-04 23:44 37.85887 147.01362 38048 ft 378 kts 238°
2026-05-04 23:44 37.83182 146.95744 38147 ft 369 kts 238°
2026-05-04 23:45 37.80546 146.90277 38164 ft 365 kts 238°
2026-05-04 23:45 37.77884 146.84764 38164 ft 365 kts 238°
2026-05-04 23:46 37.75253 146.79327 38163 ft 365 kts 238°
2026-05-04 23:46 37.72598 146.73848 38169 ft 365 kts 238°
2026-05-04 23:47 37.69942 146.68375 38165 ft 366 kts 238°
2026-05-04 23:47 37.63739 146.55633 38171 ft 366 kts 238°
2026-05-04 23:48 37.53049 146.33786 38175 ft 366 kts 238°
2026-05-04 23:48 37.42288 146.11939 38206 ft 367 kts 238°
2026-05-04 23:49 37.31453 145.90087 38212 ft 369 kts 238°
2026-05-04 23:49 37.20588 145.68238 38217 ft 369 kts 240°
2026-05-04 23:50 37.13077 145.44150 38221 ft 372 kts 247°
2026-05-04 23:50 37.05827 145.19896 38226 ft 372 kts 247°
2026-05-04 23:51 36.98510 144.95632 38235 ft 372 kts 247°
2026-05-04 23:51 36.91147 144.71431 38241 ft 372 kts 247°
2026-05-04 23:52 36.83744 144.47305 38257 ft 372 kts 247°
2026-05-04 23:52 36.76280 144.23210 38265 ft 372 kts 247°
2026-05-04 23:53 36.68839 143.99375 38271 ft 372 kts 247°
2026-05-04 23:53 36.61283 143.75412 38276 ft 372 kts 247°
2026-05-04 23:54 36.53674 143.51450 38282 ft 372 kts 247°
2026-05-04 23:54 36.46012 143.27543 38288 ft 372 kts 247°
2026-05-04 23:55 36.38293 143.03652 38289 ft 373 kts 247°
2026-05-04 23:56 36.26576 142.67757 38294 ft 375 kts 247°
2026-05-04 23:56 36.18687 142.43830 38294 ft 376 kts 247°
2026-05-04 23:57 36.10205 142.20189 38297 ft 376 kts 245°
2026-05-04 23:57 36.01694 141.96610 38293 ft 376 kts 246°
2026-05-04 23:58 35.93616 141.72826 38293 ft 376 kts 252°
2026-05-04 23:58 35.88082 141.47967 38305 ft 376 kts 253°
2026-05-04 23:59 35.82504 141.23157 38309 ft 375 kts 253°
2026-05-04 23:59 35.76896 140.98469 38287 ft 374 kts 253°
2026-05-05 00:00 35.73214 140.73391 38275 ft 382 kts 269°
2026-05-05 00:00 35.75588 140.47325 38256 ft 382 kts 270°
2026-05-05 00:01 35.77654 140.25733 38263 ft 387 kts 275°
2026-05-05 00:01 35.81878 140.06017 38283 ft 389 kts 277°
2026-05-05 00:02 35.87460 139.80211 38298 ft 391 kts 277°
2026-05-05 00:02 35.92516 139.54193 38312 ft 387 kts 272°
2026-05-05 00:03 35.95709 139.27873 38315 ft 389 kts 272°
2026-05-05 00:03 35.98853 139.01539 38305 ft 392 kts 272°
2026-05-05 00:04 36.00600 138.74869 38293 ft 389 kts 266°
2026-05-05 00:04 36.00838 138.48001 38301 ft 391 kts 266°
2026-05-05 00:05 36.01036 138.21021 38311 ft 393 kts 266°
2026-05-05 00:05 36.01179 137.94005 38311 ft 394 kts 266°
2026-05-05 00:06 36.01263 137.66857 38307 ft 396 kts 266°
2026-05-05 00:06 36.01288 137.39606 38310 ft 398 kts 266°
2026-05-05 00:07 36.01241 137.12257 38306 ft 398 kts 266°
2026-05-05 00:07 36.01137 136.84853 38306 ft 400 kts 266°
2026-05-05 00:08 36.00968 136.57343 38312 ft 401 kts 266°
2026-05-05 00:08 36.00745 136.29715 38332 ft 403 kts 266°
2026-05-05 00:09 36.00439 136.01988 38331 ft 404 kts 266°
2026-05-05 00:09 36.00077 135.74169 38330 ft 406 kts 266°
2026-05-05 00:10 35.99649 135.46294 38330 ft 407 kts 266°
2026-05-05 00:10 35.99154 135.18279 38332 ft 408 kts 266°
2026-05-05 00:11 35.98593 134.90234 38331 ft 410 kts 266°
2026-05-05 00:11 35.97962 134.62070 38323 ft 411 kts 266°
2026-05-05 00:12 35.97263 134.33827 38320 ft 412 kts 266°
2026-05-05 00:12 35.96494 134.05487 38313 ft 414 kts 266°
2026-05-05 00:13 35.95807 133.81879 38316 ft 415 kts 266°
2026-05-05 00:13 35.94745 133.48734 38313 ft 416 kts 266°
2026-05-05 00:14 35.93926 133.24795 38308 ft 417 kts 266°
2026-05-05 00:14 35.92892 132.96355 38296 ft 418 kts 266°
2026-05-05 00:15 35.91773 132.67498 38299 ft 419 kts 265°
2026-05-05 00:15 35.90598 132.38962 38294 ft 420 kts 265°
2026-05-05 00:16 35.89346 132.10193 38287 ft 420 kts 265°
2026-05-05 00:16 35.88023 131.81404 38282 ft 421 kts 265°
2026-05-05 00:17 35.86628 131.52561 38287 ft 422 kts 265°
2026-05-05 00:17 35.85164 131.23705 38285 ft 422 kts 265°
2026-05-05 00:18 35.83626 130.94791 38283 ft 423 kts 265°
2026-05-05 00:18 35.83201 130.65797 38272 ft 427 kts 275°
2026-05-05 00:19 35.86885 130.36874 38276 ft 429 kts 276°
2026-05-05 00:19 35.87800 130.29532 38268 ft 429 kts 276°
2026-05-05 00:20 35.88704 130.22248 38269 ft 430 kts 276°
2026-05-05 00:20 35.89605 130.14953 38265 ft 430 kts 276°
2026-05-05 00:21 35.90501 130.07655 38275 ft 431 kts 276°
2026-05-05 00:21 35.91394 130.00351 38267 ft 431 kts 276°
2026-05-05 00:22 35.92284 129.93035 38266 ft 432 kts 276°
2026-05-05 00:22 35.93171 129.85706 38264 ft 432 kts 276°
2026-05-05 00:23 35.94057 129.78375 38268 ft 432 kts 276°
2026-05-05 00:23 35.94936 129.71030 38265 ft 433 kts 276°
2026-05-05 00:24 35.95803 129.63729 38257 ft 433 kts 276°
2026-05-05 00:24 35.96673 129.56375 38260 ft 433 kts 276°
2026-05-05 00:25 35.97932 129.49090 38259 ft 438 kts 285°
2026-05-05 00:25 36.00688 129.42324 38258 ft 446 kts 298°
2026-05-05 00:26 36.04241 129.36018 38259 ft 448 kts 301°
2026-05-05 00:26 36.07900 129.29773 38253 ft 449 kts 301°
2026-05-05 00:27 36.11551 129.23504 38254 ft 449 kts 301°
2026-05-05 00:27 36.15175 129.17218 38254 ft 449 kts 300°
2026-05-05 00:28 36.18792 129.10915 38257 ft 449 kts 301°
2026-05-05 00:28 36.22410 129.04593 38252 ft 454 kts 301°
2026-05-05 00:29 36.26095 128.98137 38257 ft 463 kts 301°
2026-05-05 00:29 36.29826 128.91599 38255 ft 465 kts 301°
2026-05-05 00:30 36.33557 128.85059 38257 ft 465 kts 301°
2026-05-05 00:30 36.37288 128.78509 38251 ft 465 kts 301°
2026-05-05 00:31 36.41008 128.71946 38259 ft 465 kts 301°
2026-05-05 00:31 36.44725 128.65374 38255 ft 465 kts 301°
2026-05-05 00:32 36.48441 128.58799 38257 ft 465 kts 301°
2026-05-05 00:32 36.52143 128.52237 38253 ft 465 kts 301°
2026-05-05 00:33 36.55855 128.45645 38252 ft 466 kts 301°
2026-05-05 00:33 36.59563 128.39046 38251 ft 466 kts 301°
2026-05-05 00:34 36.63275 128.32428 38249 ft 466 kts 301°
2026-05-05 00:34 36.66994 128.25871 38247 ft 467 kts 301°
2026-05-05 00:35 36.70761 128.19276 38247 ft 467 kts 301°
2026-05-05 00:35 36.74529 128.12673 38245 ft 468 kts 301°
2026-05-05 00:36 36.78290 128.06048 38247 ft 468 kts 301°
2026-05-05 00:36 36.82041 127.99413 38147 ft 464 kts 301°
2026-05-05 00:36 36.83890 127.96141 37410 ft 462 kts 302°
2026-05-05 00:37 36.85753 127.92841 36213 ft 470 kts 302°
2026-05-05 00:37 36.87646 127.89475 35074 ft 477 kts 303°
2026-05-05 00:37 36.89562 127.86062 33920 ft 482 kts 303°
2026-05-05 00:37 36.91496 127.82617 32621 ft 487 kts 303°
2026-05-05 00:38 36.93452 127.79132 31324 ft 493 kts 304°
2026-05-05 00:38 36.95439 127.75612 29978 ft 499 kts 304°
2026-05-05 00:38 36.97437 127.72060 28952 ft 497 kts 304°
2026-05-05 00:38 36.99340 127.68673 28276 ft 490 kts 304°
2026-05-05 00:39 37.01315 127.65156 27547 ft 485 kts 304°
2026-05-05 00:39 37.03217 127.61765 26859 ft 480 kts 304°
2026-05-05 00:39 37.05148 127.58313 26149 ft 475 kts 304°
2026-05-05 00:39 37.07008 127.54979 25476 ft 472 kts 304°
2026-05-05 00:40 37.08876 127.51629 24819 ft 467 kts 304°
2026-05-05 00:40 37.10726 127.48308 24163 ft 463 kts 304°
2026-05-05 00:40 37.12564 127.45007 23486 ft 459 kts 304°
2026-05-05 00:40 37.14383 127.41746 22762 ft 455 kts 304°
2026-05-05 00:41 37.16183 127.38511 22020 ft 451 kts 304°
2026-05-05 00:41 37.17968 127.35294 21304 ft 447 kts 304°
2026-05-05 00:41 37.19734 127.32108 20601 ft 443 kts 304°
2026-05-05 00:41 37.21490 127.28946 19899 ft 440 kts 304°
2026-05-05 00:42 37.23231 127.25798 19201 ft 437 kts 304°
2026-05-05 00:42 37.24954 127.22678 18537 ft 434 kts 304°
2026-05-05 00:42 37.26547 127.19479 17774 ft 431 kts 294°
2026-05-05 00:42 37.27375 127.15911 17305 ft 424 kts 276°
2026-05-05 00:43 37.27419 127.12218 17178 ft 423 kts 267°
2026-05-05 00:43 37.27308 127.08521 17169 ft 424 kts 267°
2026-05-05 00:43 37.27231 127.04825 17161 ft 424 kts 268°
2026-05-05 00:43 37.27188 127.01125 17162 ft 424 kts 269°
2026-05-05 00:44 37.27163 126.97420 17161 ft 424 kts 269°
2026-05-05 00:44 37.27146 126.93717 17159 ft 424 kts 269°
2026-05-05 00:44 37.27544 126.90047 17164 ft 426 kts 286°
2026-05-05 00:44 37.28821 126.86700 17161 ft 427 kts 304°
2026-05-05 00:45 37.30842 126.84007 17158 ft 428 kts 321°
2026-05-05 00:45 37.32928 126.82107 16977 ft 420 kts 324°
2026-05-05 00:45 37.34153 126.80985 16626 ft 417 kts 322°
2026-05-05 00:45 37.36327 126.78760 15730 ft 419 kts 317°
2026-05-05 00:46 37.38136 126.75919 14922 ft 416 kts 297°
2026-05-05 00:46 37.39104 126.72536 14272 ft 409 kts 279°
2026-05-05 00:46 37.39158 126.69049 13553 ft 403 kts 260°
2026-05-05 00:46 37.38297 126.65740 12825 ft 397 kts 241°
2026-05-05 00:47 37.36634 126.63052 12175 ft 382 kts 221°
2026-05-05 00:47 37.34464 126.61400 11604 ft 352 kts 199°
2026-05-05 00:47 37.32149 126.61007 11126 ft 327 kts 175°
2026-05-05 00:47 37.30083 126.61828 10727 ft 305 kts 153°
2026-05-05 00:48 37.28236 126.63116 10254 ft 308 kts 148°
2026-05-05 00:48 37.26573 126.64914 10007 ft 311 kts 133°
2026-05-05 00:48 37.25263 126.66910 9991 ft 286 kts 129°
2026-05-05 00:48 37.23946 126.69064 9989 ft 306 kts 128°
2026-05-05 00:49 37.19908 126.75953 9985 ft 382 kts 127°
2026-05-05 00:49 37.18381 126.78608 9993 ft 365 kts 127°
2026-05-05 00:49 37.16943 126.81115 10004 ft 343 kts 127°
2026-05-05 00:49 37.15595 126.83471 10014 ft 324 kts 127°
2026-05-05 00:50 37.14202 126.85549 10013 ft 299 kts 137°
2026-05-05 00:50 37.12559 126.87074 10007 ft 290 kts 153°
2026-05-05 00:50 37.10674 126.87877 9999 ft 286 kts 174°
2026-05-05 00:50 37.08723 126.87617 10001 ft 283 kts 200°
2026-05-05 00:51 37.07086 126.86288 10001 ft 282 kts 226°
2026-05-05 00:51 37.06010 126.84264 9790 ft 278 kts 243°
2026-05-05 00:51 37.05425 126.81962 9324 ft 279 kts 257°
2026-05-05 00:51 37.04792 126.79677 8902 ft 278 kts 245°
2026-05-05 00:52 37.03918 126.77537 8528 ft 275 kts 244°
2026-05-05 00:52 37.03417 126.75239 8158 ft 275 kts 264°
2026-05-05 00:52 37.03634 126.72881 8004 ft 275 kts 287°
2026-05-05 00:52 37.04623 126.70839 7987 ft 278 kts 312°
2026-05-05 00:53 37.06233 126.69624 7997 ft 266 kts 341°
2026-05-05 00:53 37.07975 126.69082 7990 ft 252 kts 346°
2026-05-05 00:53 37.09639 126.68661 7994 ft 237 kts 346°
2026-05-05 00:53 37.11205 126.68268 7952 ft 223 kts 346°
2026-05-05 00:54 37.12708 126.67886 7503 ft 224 kts 346°
2026-05-05 00:54 37.14276 126.67479 6858 ft 232 kts 345°
2026-05-05 00:54 37.15828 126.67079 6577 ft 220 kts 345°
2026-05-05 00:54 37.17255 126.66713 6479 ft 199 kts 345°
2026-05-05 00:55 37.18555 126.66377 6202 ft 190 kts 345°
2026-05-05 00:55 37.19806 126.66052 6008 ft 179 kts 345°
2026-05-05 00:55 37.20999 126.65742 5864 ft 171 kts 344°
2026-05-05 00:55 37.22142 126.65443 5699 ft 166 kts 344°
2026-05-05 00:56 37.23251 126.65151 5491 ft 160 kts 344°
2026-05-05 00:56 37.24287 126.64723 5255 ft 155 kts 330°
2026-05-05 00:56 37.25204 126.64032 4978 ft 153 kts 321°
2026-05-05 00:56 37.26076 126.63262 4676 ft 152 kts 320°
2026-05-05 00:57 37.26929 126.62516 4419 ft 148 kts 320°
2026-05-05 00:57 37.27765 126.61777 4248 ft 147 kts 320°
2026-05-05 00:57 37.28607 126.61029 4056 ft 148 kts 320°
2026-05-05 00:57 37.29163 126.60535 3945 ft 148 kts 320°
2026-05-05 00:58 37.30291 126.59534 3689 ft 148 kts 320°
2026-05-05 00:58 37.31132 126.58788 3496 ft 148 kts 320°
2026-05-05 00:58 37.31967 126.58046 3289 ft 147 kts 320°
2026-05-05 00:58 37.32800 126.57307 3099 ft 146 kts 320°
2026-05-05 00:59 37.33633 126.56567 2903 ft 146 kts 319°
2026-05-05 00:59 37.34458 126.55835 2710 ft 145 kts 320°
2026-05-05 00:59 37.35280 126.55104 2517 ft 143 kts 319°
2026-05-05 00:59 37.35820 126.54624 2379 ft 143 kts 320°
2026-05-05 01:00 37.36614 126.53918 2189 ft 143 kts 319°
2026-05-05 01:00 37.37715 126.52940 1918 ft 143 kts 319°
2026-05-05 01:00 37.38527 126.52217 1732 ft 143 kts 320°
2026-05-05 01:00 37.39321 126.51511 1528 ft 143 kts 320°
2026-05-05 01:01 37.39857 126.51034 1397 ft 142 kts 320°
2026-05-05 01:01 37.40940 126.50070 1126 ft 142 kts 321°
2026-05-05 01:01 37.41747 126.49352 948 ft 142 kts 322°
2026-05-05 01:01 37.42260 126.48895 820 ft 143 kts 322°
2026-05-05 01:02 37.43075 126.48170 635 ft 144 kts 323°
2026-05-05 01:02 37.43892 126.47440 423 ft 144 kts 323°
2026-05-05 01:02 37.44711 126.46714 229 ft 144 kts 323°
2026-05-05 01:02 37.45531 126.45994 56 ft 143 kts 323°
2026-05-05 01:03 37.46285 126.45317 37 ft 111 kts 325°
2026-05-05 01:03 37.46777 126.44880 39 ft 62 kts 324°
2026-05-05 01:03 37.47093 126.44597 39 ft 54 kts 322°
2026-05-05 01:03 37.47223 126.44399 38 ft 23 kts 295°
2026-05-05 01:04 37.47245 126.44339 38 ft 0 kts 294°